<- Previous Day | Today | Next Day ->

All Data for 05 July 2020

 

Time A - D Temp A - D Dew Point A - D Humidity A - D Pressure A - D Wind A - D Wind Dir Gust A - D Rain Rate A - D Rain Total
00:00 14.8 14.5 98 1013.1 15.9 W 20.6 0.0 0.0
00:01 14.8 14.5 98 1013.1 19.0 W 20.6 0.0 0.0
00:02 14.9 14.6 98 1013.0 19.0 W 20.6 0.0 0.0
00:03 14.9 14.6 98 1012.8 16.8 SW 20.6 0.0 0.0
00:04 14.9 14.6 98 1013.1 18.3 W 20.6 0.0 0.0
00:05 14.9 14.6 98 1013.2 15.2 W 20.6 0.0 0.0
00:06 14.9 14.6 98 1012.8 21.3 W 21.3 0.0 0.0
00:07 14.9 14.6 98 1013.0 15.2 SW 21.3 0.0 0.0
00:08 14.9 14.6 98 1012.9 21.3 SW 21.3 0.0 0.0
00:09 14.9 14.6 98 1013.0 20.6 SW 21.3 0.0 0.0
00:10 14.9 14.6 98 1012.7 18.3 W 21.3 0.0 0.0
00:11 14.9 14.6 98 1013.3 17.4 WNW 21.3 0.0 0.0
00:12 14.9 14.6 98 1013.1 19.7 SW 21.3 0.0 0.0
00:13 14.9 14.6 98 1013.0 18.3 NW 24.4 0.0 0.0
00:14 14.9 14.6 98 1013.3 21.3 SW 24.4 0.0 0.0
00:15 14.9 14.6 98 1013.2 15.9 SW 24.4 0.0 0.0
00:16 14.9 14.6 98 1013.2 19.0 W 24.4 0.0 0.0
00:17 14.9 14.6 98 1013.2 19.0 SW 24.4 0.0 0.0
00:18 14.9 14.6 98 1013.1 18.3 SW 24.4 0.0 0.0
00:19 14.9 14.6 98 1013.1 16.8 N 24.4 0.0 0.0
00:20 14.9 14.6 98 1012.9 20.6 SW 24.4 0.0 0.0
00:21 14.9 14.6 98 1012.9 20.6 SW 24.4 0.0 0.0
00:22 14.9 14.6 98 1013.0 15.9 SW 24.4 0.0 0.0
00:23 14.9 14.6 98 1013.1 18.3 SW 24.4 0.0 0.0
00:24 14.9 14.6 98 1013.1 19.0 S 21.3 0.0 0.0
00:25 14.9 14.6 98 1012.8 22.8 SW 22.8 0.0 0.0
00:26 14.9 14.6 98 1013.0 22.8 SW 22.8 0.0 0.0
00:27 14.9 14.6 98 1013.1 16.8 W 22.8 0.0 0.0
00:28 14.9 14.6 98 1012.9 19.7 SW 22.8 0.0 0.0
00:29 14.9 14.6 98 1013.1 15.9 W 22.8 0.0 0.0
00:30 14.9 14.6 98 1013.0 19.0 SW 22.8 0.0 0.0
00:31 14.9 14.6 98 1013.2 19.0 SW 22.8 0.0 0.0
00:32 14.9 14.6 98 1013.1 22.1 SW 22.8 0.0 0.0
00:33 14.9 14.6 98 1012.9 15.9 W 22.8 0.0 0.0
00:34 14.9 14.6 98 1013.1 17.4 SW 22.8 0.0 0.0
00:35 14.9 14.6 98 1013.1 19.0 SW 22.8 0.0 0.0
00:36 14.9 14.6 98 1013.0 19.0 W 22.1 0.8 0.1
00:37 14.9 14.6 98 1013.1 18.3 SW 22.1 0.8 0.1
00:38 14.9 14.6 98 1013.0 18.3 W 22.1 0.8 0.1
00:39 14.9 14.8 99 1012.9 19.0 SW 22.1 0.8 0.1
00:40 14.9 14.8 99 1012.9 19.0 SW 22.1 0.8 0.1
00:41 14.9 14.8 99 1013.0 19.7 W 22.1 0.0 0.1
00:42 14.9 14.8 99 1013.1 22.1 SW 22.1 0.0 0.1
00:43 14.9 14.8 99 1012.8 17.4 W 22.1 0.0 0.1
00:44 14.9 14.8 99 1013.0 17.4 W 22.1 0.0 0.1
00:45 14.9 14.8 99 1012.9 21.3 SW 22.1 0.0 0.1
00:46 14.9 14.8 99 1012.9 15.9 SW 22.1 0.0 0.1
00:47 14.9 14.8 99 1013.0 13.6 W 22.1 0.0 0.1
00:48 14.9 14.6 98 1012.7 18.3 SW 22.1 0.0 0.1
00:49 14.9 14.6 98 1013.0 17.4 SW 22.1 0.0 0.1
00:50 14.9 14.6 98 1012.9 18.3 WNW 22.1 0.0 0.1
00:51 14.9 14.6 98 1012.9 15.9 SW 22.1 0.0 0.1
00:52 14.9 14.8 99 1013.0 14.5 SW 22.1 0.0 0.1
00:53 14.9 14.8 99 1012.9 19.7 SW 21.3 0.0 0.1
00:54 14.9 14.8 99 1012.9 15.2 W 21.3 0.0 0.1
00:55 14.9 14.8 99 1013.2 13.6 WNW 19.7 0.0 0.1
00:56 14.9 14.8 99 1012.8 17.4 WSW 19.7 0.0 0.1
00:57 14.9 14.8 99 1012.8 17.4 WSW 19.7 0.0 0.1
00:58 14.9 14.8 99 1012.9 19.0 SE 19.7 0.0 0.1
00:59 14.9 14.8 99 1012.8 25.9 SW 25.9 0.0 0.1
01:00 14.9 14.8 99 1012.9 15.9 SW 25.9 0.0 0.1
01:01 14.9 14.8 99 1012.9 15.9 SW 25.9 0.0 0.1
01:02 14.9 14.8 99 1012.6 15.9 SW 25.9 0.0 0.1
01:03 14.9 14.8 99 1012.8 15.9 SW 25.9 0.0 0.1
01:04 14.9 14.8 99 1012.7 15.9 SW 25.9 0.0 0.1
01:05 14.9 14.8 99 1012.7 15.9 SW 25.9 0.0 0.1
01:06 14.9 14.8 99 1012.8 15.9 SW 25.9 0.0 0.1
01:07 14.9 14.8 99 1012.8 13.6 SW 25.9 0.0 0.1
01:08 14.9 14.8 99 1012.7 15.2 W 25.9 0.0 0.1
01:09 15.0 14.9 99 1012.9 17.4 SW 17.4 0.0 0.1
01:10 15.0 14.9 99 1012.8 17.4 SW 17.4 0.0 0.1
01:11 15.0 14.9 99 1012.7 15.2 SW 17.4 0.0 0.1
01:12 15.0 14.9 99 1012.7 14.5 W 17.4 0.0 0.1
01:13 15.0 14.9 99 1012.8 16.8 SW 17.4 0.0 0.1
01:14 15.0 14.9 99 1012.8 19.0 SW 19.0 0.0 0.1
01:15 15.0 14.9 99 1012.8 17.4 SW 21.3 0.0 0.1
01:16 15.0 14.9 99 1012.7 19.0 W 21.3 0.8 0.1
01:17 15.0 14.9 99 1012.6 18.3 SW 21.3 0.8 0.1
01:18 15.0 14.9 99 1012.7 15.9 SW 26.6 0.8 0.1
01:19 15.0 14.9 99 1012.6 15.9 SW 26.6 0.8 0.1
01:20 15.0 14.9 99 1012.5 19.7 SW 26.6 0.0 0.1
01:21 15.0 14.9 99 1012.7 17.4 W 26.6 0.0 0.1
01:22 15.0 14.9 99 1012.9 18.3 SW 26.6 0.0 0.1
01:23 15.0 14.9 99 1012.8 19.7 SW 26.6 0.0 0.1
01:24 15.0 14.9 99 1012.6 14.5 SW 26.6 0.0 0.1
01:25 15.0 14.9 99 1012.6 14.5 SW 26.6 0.0 0.1
01:26 15.0 14.9 99 1012.6 15.2 W 26.6 0.0 0.1
01:27 15.0 14.9 99 1012.8 16.8 SW 26.6 0.0 0.1
01:28 15.0 14.9 99 1012.6 15.2 NNE 19.7 0.0 0.1
01:29 15.0 14.9 99 1012.5 15.9 WNW 19.7 0.0 0.1
01:30 15.0 14.9 99 1012.4 15.9 W 19.7 0.0 0.1
01:31 15.0 14.9 99 1012.7 15.9 W 19.7 0.0 0.1
01:32 15.0 14.9 99 1012.5 16.8 SW 19.7 0.0 0.1
01:33 15.0 14.9 99 1012.5 19.7 SW 19.7 0.0 0.1
01:34 15.0 14.9 99 1012.5 15.2 SW 19.7 0.0 0.1
01:35 15.0 14.9 99 1012.7 18.3 SW 19.7 0.0 0.1
01:36 15.0 14.9 99 1012.5 13.6 SW 19.7 0.0 0.1
01:37 15.0 14.9 99 1012.5 18.3 W 19.7 0.0 0.1
01:38 15.0 14.9 99 1012.7 18.3 W 19.7 0.0 0.1
01:39 15.0 14.9 99 1012.4 15.9 WSW 19.7 0.0 0.2
01:40 15.0 14.9 99 1012.5 15.2 S 19.7 0.8 0.2
01:41 15.0 14.9 99 1012.7 14.5 SW 19.7 0.8 0.2
01:42 15.0 14.9 99 1012.5 19.7 SW 19.7 0.8 0.2
01:43 15.0 14.9 99 1012.5 18.3 SW 19.7 0.8 0.2
01:44 15.0 14.9 99 1012.5 18.3 SW 19.7 0.0 0.2
01:45 15.0 14.9 99 1012.4 19.0 SW 19.7 0.0 0.2
01:46 15.0 14.9 99 1012.7 18.3 W 23.5 0.0 0.2
01:47 15.0 14.9 99 1012.3 18.3 W 23.5 0.0 0.2
01:48 15.0 14.9 99 1012.5 16.8 SW 23.5 0.0 0.2
01:49 15.0 14.9 99 1012.3 16.8 SW 23.5 0.0 0.2
01:50 15.0 14.9 99 1012.4 16.8 W 23.5 0.0 0.2
01:51 15.0 14.9 99 1012.5 15.2 SW 23.5 0.0 0.2
01:52 15.0 14.9 99 1012.3 19.7 SW 23.5 0.0 0.2
01:53 15.0 14.9 99 1012.3 19.7 SW 23.5 0.0 0.2
01:54 15.0 14.9 99 1012.3 19.7 WNW 23.5 0.0 0.2
01:55 15.0 14.9 99 1012.5 19.0 WNW 23.5 0.0 0.2
01:56 15.0 14.9 99 1012.4 19.7 NW 19.7 0.0 0.2
01:57 15.1 15.0 99 1012.4 18.3 N 19.7 0.0 0.2
01:58 15.1 15.0 99 1012.5 15.2 SW 19.7 0.0 0.2
01:59 15.1 15.0 99 1012.5 13.6 SW 19.7 0.0 0.2
02:00 15.1 15.0 99 1012.4 15.9 W 19.7 0.0 0.2
02:01 15.1 15.0 99 1012.3 15.2 SW 19.7 0.0 0.2
02:02 15.1 15.0 99 1012.4 16.8 SW 19.7 0.0 0.3
02:03 15.1 15.0 99 1012.5 18.3 W 19.7 0.8 0.3
02:04 15.1 15.0 99 1012.4 18.3 WNW 19.7 0.8 0.3
02:05 15.1 15.0 99 1012.3 18.3 W 19.7 0.8 0.3
02:06 15.1 15.0 99 1012.3 17.4 W 18.3 0.8 0.3
02:07 15.1 15.0 99 1012.3 13.0 SW 18.3 0.8 0.3
02:08 15.1 15.0 99 1012.3 14.5 SW 18.3 0.8 0.3
02:09 15.1 15.0 99 1012.6 14.5 W 18.3 0.0 0.3
02:10 15.1 15.0 99 1012.4 13.0 W 18.3 0.0 0.3
02:11 15.1 15.0 99 1012.3 15.9 SW 18.3 0.0 0.3
02:12 15.1 15.0 99 1012.3 19.7 W 19.7 0.0 0.3
02:13 15.1 15.0 99 1012.3 19.7 SW 19.7 0.0 0.3
02:14 15.1 15.0 99 1012.4 13.0 W 19.7 0.0 0.3
02:15 15.1 15.0 99 1012.5 15.9 W 19.7 0.0 0.3
02:16 15.1 15.0 99 1012.3 18.3 SW 19.7 0.0 0.3
02:17 15.1 15.0 99 1012.2 18.3 SW 19.7 0.0 0.3
02:18 15.1 15.0 99 1012.3 14.5 W 19.7 0.0 0.3
02:19 15.1 15.0 99 1012.3 13.6 SW 19.7 0.0 0.3
02:20 15.1 15.0 99 1012.4 15.2 W 19.7 0.0 0.3
02:21 15.1 15.0 99 1012.4 15.2 W 19.7 0.0 0.3
02:22 15.1 15.0 99 1012.4 15.2 SW 19.7 0.8 0.3
02:23 15.1 15.0 99 1012.3 18.3 W 19.7 0.8 0.3
02:24 15.1 15.0 99 1012.3 18.3 W 18.3 0.8 0.3
02:25 15.1 15.0 99 1012.3 22.1 W 22.1 0.8 0.3
02:26 15.1 15.0 99 1012.4 19.0 SW 22.1 0.0 0.3
02:27 15.1 15.0 99 1012.1 16.8 W 22.1 0.0 0.3
02:28 15.1 15.0 99 1012.2 18.3 W 22.1 0.0 0.3
02:29 15.1 15.0 99 1012.1 15.2 W 22.1 0.0 0.3
02:30 15.1 15.0 99 1012.3 13.6 SW 22.1 0.0 0.3
02:31 15.1 15.0 99 1012.1 13.6 W 22.1 0.0 0.3
02:32 15.1 15.0 99 1012.2 19.0 SW 22.1 0.0 0.3
02:33 15.1 15.0 99 1012.3 16.8 SW 22.1 0.0 0.3
02:34 15.1 15.0 99 1012.3 16.8 SW 22.1 0.0 0.3
02:35 15.1 15.0 99 1012.4 15.2 W 22.1 0.0 0.3
02:36 15.2 15.1 99 1012.3 15.2 W 19.0 0.0 0.3
02:37 15.2 15.1 99 1012.3 19.0 SW 19.0 0.0 0.3
02:38 15.2 15.1 99 1012.3 19.0 W 19.0 0.0 0.3
02:39 15.2 15.1 99 1012.3 16.8 W 19.0 0.0 0.3
02:40 15.2 15.1 99 1012.4 11.4 W 19.0 0.0 0.3
02:41 15.2 15.1 99 1012.2 14.5 WSW 19.0 0.0 0.3
02:42 15.2 15.1 99 1012.2 18.3 W 19.0 0.0 0.3
02:43 15.2 15.1 99 1012.2 19.0 SW 19.0 0.0 0.3
02:44 15.2 15.1 99 1012.0 19.7 SW 19.7 0.0 0.3
02:45 15.2 15.1 99 1012.3 13.6 W 19.7 0.0 0.3
02:46 15.2 15.1 99 1012.1 13.6 WNW 19.7 0.0 0.3
02:47 15.2 15.1 99 1012.2 19.7 WNW 19.7 0.8 0.4
02:48 15.2 15.1 99 1012.1 19.0 SW 19.7 0.8 0.4
02:49 15.2 15.1 99 1012.1 19.0 SW 19.7 0.8 0.4
02:50 15.2 15.1 99 1012.3 11.4 N 19.7 0.8 0.4
02:51 15.2 15.1 99 1012.0 15.9 W 19.7 0.8 0.4
02:52 15.2 15.1 99 1012.2 15.9 S 19.7 0.0 0.4
02:53 15.3 15.2 99 1012.1 19.7 W 19.7 0.0 0.4
02:54 15.3 15.2 99 1012.2 19.7 SW 19.7 0.0 0.4
02:55 15.3 15.2 99 1012.2 14.5 WSW 19.7 0.0 0.4
02:56 15.3 15.2 99 1012.2 20.6 SW 20.6 0.0 0.4
02:57 15.3 15.2 99 1012.1 17.4 SW 20.6 0.0 0.4
02:58 15.3 15.2 99 1012.1 19.7 SW 20.6 0.0 0.4
02:59 15.3 15.2 99 1012.2 19.0 WNW 20.6 0.0 0.4
03:00 15.3 15.2 99 1012.2 20.6 SW 20.6 0.0 0.4
03:01 15.3 15.2 99 1011.9 20.6 SW 20.6 0.0 0.4
03:02 15.3 15.2 99 1012.3 20.6 SW 20.6 0.0 0.4
03:03 15.3 15.2 99 1012.0 20.6 SW 20.6 0.0 0.4
03:04 15.3 15.2 99 1012.3 20.6 SW 20.6 0.0 0.4
03:05 15.3 15.2 99 1012.1 20.6 SW 20.6 0.0 0.4
03:06 15.3 15.2 99 1012.2 20.6 SW 20.6 0.0 0.4
03:07 15.3 15.2 99 1012.2 16.8 W 20.6 0.0 0.4
03:08 15.3 15.2 99 1012.0 16.8 W 20.6 0.0 0.4
03:09 15.3 15.2 99 1012.0 17.4 W 20.6 0.0 0.4
03:10 15.3 15.2 99 1012.0 19.0 SW 20.6 0.0 0.4
03:11 15.3 15.2 99 1012.2 19.0 WNW 20.6 0.0 0.4
03:12 15.3 15.2 99 1012.0 19.0 SW 20.6 0.0 0.4
03:13 15.3 15.2 99 1012.1 19.0 SW 20.6 0.0 0.4
03:14 15.3 15.2 99 1012.1 17.4 SW 20.6 0.0 0.4
03:15 15.3 15.2 99 1011.9 18.3 W 20.6 0.0 0.4
03:16 15.3 15.2 99 1012.1 22.8 SW 27.3 0.8 0.4
03:17 15.3 15.2 99 1012.1 22.8 SW 27.3 0.8 0.4
03:18 15.3 15.2 99 1012.0 18.3 W 27.3 0.8 0.4
03:19 15.3 15.2 99 1012.0 21.3 W 27.3 0.8 0.4
03:20 15.3 15.2 99 1012.1 21.3 SW 27.3 0.8 0.4
03:21 15.3 15.2 99 1012.1 21.3 SW 27.3 0.0 0.4
03:22 15.3 15.2 99 1012.1 19.0 SW 27.3 0.0 0.4
03:23 15.4 15.3 99 1012.2 15.9 SW 27.3 0.0 0.4
03:24 15.4 15.3 99 1011.8 15.2 SW 27.3 0.0 0.4
03:25 15.4 15.3 99 1012.0 23.5 WNW 27.3 0.0 0.4
03:26 15.4 15.3 99 1012.2 19.0 W 23.5 0.0 0.4
03:27 15.4 15.3 99 1012.3 13.6 SW 23.5 0.0 0.4
03:28 15.4 15.3 99 1012.0 21.3 W 23.5 0.0 0.4
03:29 15.4 15.3 99 1012.3 21.3 W 23.5 0.0 0.4
03:30 15.4 15.3 99 1012.0 22.8 SW 23.5 0.0 0.4
03:31 15.4 15.3 99 1012.2 21.3 SW 23.5 0.0 0.4
03:32 15.4 15.3 99 1012.0 21.3 W 23.5 0.0 0.4
03:33 15.4 15.3 99 1012.1 17.4 W 23.5 0.0 0.4
03:34 15.4 15.3 99 1012.1 17.4 SW 23.5 0.0 0.4
03:35 15.4 15.3 99 1011.9 19.7 W 23.5 0.0 0.4
03:36 15.4 15.3 99 1012.0 16.8 W 22.8 0.0 0.4
03:37 15.4 15.3 99 1012.1 16.8 W 22.8 0.0 0.4
03:38 15.3 15.2 99 1011.9 13.6 SW 22.8 0.0 0.4
03:39 15.3 15.2 99 1012.1 13.6 SW 22.8 0.0 0.4
03:40 15.3 15.2 99 1012.2 13.6 SW 22.8 0.0 0.4
03:41 15.3 15.2 99 1011.9 18.3 W 21.3 0.0 0.4
03:42 15.3 15.2 99 1012.0 19.7 W 19.7 0.0 0.5
03:43 15.3 15.2 99 1012.1 20.6 W 20.6 0.8 0.5
03:44 15.3 15.2 99 1012.1 19.0 W 20.6 0.8 0.5
03:45 15.3 15.2 99 1012.1 19.0 W 20.6 0.8 0.5
03:46 15.3 15.2 99 1012.0 19.0 WNW 20.6 0.8 0.5
03:47 15.3 15.2 99 1012.0 20.6 W 20.6 0.8 0.5
03:48 15.3 15.2 99 1012.1 20.6 W 20.6 0.8 0.5
03:49 15.3 15.2 99 1011.8 16.8 SW 20.6 0.0 0.5
03:50 15.3 15.2 99 1012.0 20.6 SW 20.6 0.0 0.5
03:51 15.3 15.2 99 1012.0 14.5 W 20.6 0.0 0.5
03:52 15.3 15.2 99 1012.2 18.3 W 20.6 0.0 0.5
03:53 15.3 15.2 99 1012.1 15.9 SW 20.6 0.0 0.5
03:54 15.3 15.2 99 1012.0 15.9 SW 20.6 0.0 0.5
03:55 15.3 15.2 99 1012.0 18.3 SW 20.6 0.0 0.5
03:56 15.3 15.2 99 1012.1 19.0 SW 20.6 0.0 0.5
03:57 15.3 15.2 99 1012.1 16.8 SW 20.6 0.0 0.5
03:58 15.3 15.2 99 1011.9 16.8 W 20.6 0.0 0.5
03:59 15.3 15.2 99 1012.2 16.8 N 20.6 0.0 0.5
04:00 15.3 15.2 99 1012.1 16.8 N 20.6 0.0 0.5
04:01 15.3 15.2 99 1012.1 16.8 WSW 19.0 0.0 0.5
04:02 15.3 15.2 99 1012.1 17.4 SW 19.0 0.0 0.5
04:03 15.3 15.2 99 1012.0 15.2 W 19.0 0.0 0.5
04:04 15.3 15.2 99 1012.1 14.5 SW 19.0 0.0 0.6
04:05 15.3 15.2 99 1012.0 16.8 SW 19.0 0.8 0.6
04:06 15.3 15.2 99 1011.9 17.4 SW 19.0 0.8 0.6
04:07 15.3 15.2 99 1012.1 21.3 SW 21.3 0.8 0.6
04:08 15.3 15.2 99 1012.0 17.4 W 21.3 0.8 0.6
04:09 15.3 15.2 99 1012.0 19.0 W 21.3 0.0 0.6
04:10 15.3 15.2 99 1012.1 20.6 SW 21.3 0.0 0.6
04:11 15.3 15.2 99 1012.2 16.8 SW 21.3 0.0 0.6
04:12 15.3 15.2 99 1012.2 15.2 W 21.3 0.0 0.6
04:13 15.3 15.2 99 1012.2 15.2 W 21.3 0.0 0.6
04:14 15.2 15.1 99 1012.1 15.9 N 21.3 0.0 0.6
04:15 15.2 15.1 99 1012.1 22.8 WNW 22.8 0.0 0.6
04:16 15.2 15.1 99 1012.2 21.3 N 22.8 0.0 0.6
04:17 15.2 15.1 99 1011.9 19.7 W 22.8 0.0 0.6
04:18 15.2 15.1 99 1011.9 25.9 W 25.9 0.0 0.6
04:19 15.2 15.1 99 1012.1 17.4 W 25.9 0.0 0.6
04:20 15.2 15.1 99 1012.3 18.3 W 25.9 0.0 0.6
04:21 15.2 15.1 99 1012.1 18.3 W 25.9 0.0 0.6
04:22 15.2 15.1 99 1012.2 15.9 W 25.9 0.0 0.6
04:23 15.2 15.1 99 1012.1 21.3 W 25.9 0.0 0.6
04:24 15.2 15.1 99 1012.0 22.1 WNW 25.9 0.0 0.6
04:25 15.2 15.1 99 1012.2 21.3 W 25.9 0.0 0.6
04:26 15.1 15.0 99 1012.1 19.7 W 25.9 0.0 0.6
04:27 15.1 15.0 99 1012.0 13.6 SW 25.9 0.0 0.6
04:28 15.1 15.0 99 1012.3 24.4 WNW 25.9 0.0 0.6
04:29 15.1 15.0 99 1012.1 24.4 N 24.4 0.0 0.6
04:30 15.1 15.0 99 1012.2 24.4 N 24.4 0.0 0.6
04:31 15.1 15.0 99 1012.0 17.4 W 24.4 0.0 0.6
04:32 15.1 15.0 99 1012.1 21.3 SW 24.4 0.0 0.6
04:33 15.1 15.0 99 1012.0 21.3 W 24.4 0.0 0.6
04:34 15.1 15.0 99 1011.9 22.8 W 24.4 0.0 0.6
04:35 15.1 15.0 99 1011.9 21.3 W 24.4 0.0 0.6
04:36 15.1 15.0 99 1012.1 23.5 WSW 24.4 0.0 0.6
04:37 15.1 15.0 99 1012.1 23.5 SW 24.4 0.0 0.6
04:38 15.1 15.0 99 1012.2 19.0 N 24.4 0.0 0.6
04:39 15.0 14.9 99 1012.0 19.0 W 24.4 0.0 0.6
04:40 15.0 14.9 99 1012.2 17.4 W 24.4 0.0 0.6
04:41 15.0 14.9 99 1012.2 15.2 WNW 23.5 0.0 0.6
04:42 15.0 14.9 99 1012.2 15.2 WNW 23.5 0.0 0.6
04:43 15.0 14.9 99 1012.1 19.0 W 23.5 0.0 0.6
04:44 15.0 14.9 99 1012.0 19.7 W 23.5 0.0 0.6
04:45 15.0 14.9 99 1012.1 12.1 W 23.5 0.0 0.6
04:46 15.0 14.9 99 1012.0 16.8 WNW 23.5 0.0 0.6
04:47 15.0 14.9 99 1012.2 19.7 W 23.5 0.0 0.6
04:48 15.0 14.9 99 1012.0 13.6 W 19.7 0.0 0.6
04:49 15.0 14.9 99 1012.0 11.4 W 19.7 0.0 0.6
04:50 15.0 14.9 99 1012.2 17.4 SW 19.7 0.0 0.6
04:51 15.0 14.9 99 1012.1 15.9 WNW 19.7 0.0 0.6
04:52 15.0 14.9 99 1012.0 19.7 SW 19.7 0.0 0.6
04:53 15.0 14.9 99 1012.1 19.7 W 19.7 0.0 0.6
04:54 15.0 14.9 99 1012.3 18.3 SW 19.7 0.0 0.6
04:55 15.0 14.9 99 1012.1 22.1 W 22.1 0.0 0.6
04:56 15.0 14.9 99 1012.2 25.9 SW 25.9 0.0 0.6
04:57 15.0 14.9 99 1012.0 19.7 SW 25.9 0.0 0.6
04:58 15.0 14.9 99 1011.9 18.3 W 25.9 0.0 0.6
04:59 14.9 14.8 99 1012.5 21.3 SW 25.9 0.0 0.6
05:00 14.9 14.8 99 1012.1 15.9 W 25.9 0.0 0.6
05:01 14.9 14.8 99 1012.2 15.9 W 25.9 0.0 0.6
05:02 14.9 14.8 99 1012.1 15.9 W 25.9 0.0 0.6
05:03 14.9 14.8 99 1012.1 15.9 W 25.9 0.0 0.6
05:04 14.9 14.8 99 1012.2 15.9 W 25.9 0.0 0.6
05:05 14.9 14.8 99 1012.3 15.9 W 25.9 0.0 0.6
05:06 14.9 14.8 99 1012.2 15.9 W 21.3 0.0 0.6
05:07 14.9 14.8 99 1011.9 16.8 W 21.3 0.0 0.6
05:08 14.9 14.8 99 1012.4 15.2 W 21.3 0.0 0.6
05:09 14.9 14.8 99 1012.2 18.3 W 18.3 0.0 0.6
05:10 14.9 14.8 99 1012.2 18.3 W 18.3 0.0 0.6
05:11 14.9 14.8 99 1012.2 18.3 W 18.3 0.0 0.6
05:12 14.8 14.7 99 1012.2 19.7 WNW 19.7 0.0 0.6
05:13 14.8 14.7 99 1012.2 14.5 NNE 19.7 0.0 0.6
05:14 14.8 14.7 99 1012.1 13.6 WNW 19.7 0.0 0.6
05:15 14.8 14.7 99 1012.2 19.0 SW 19.7 0.0 0.6
05:16 14.8 14.7 99 1012.5 14.5 SW 19.7 0.0 0.6
05:17 14.8 14.7 99 1012.2 15.9 W 19.7 0.0 0.6
05:18 14.8 14.7 99 1012.2 15.2 W 19.7 0.0 0.6
05:19 14.8 14.7 99 1012.4 12.1 W 19.7 0.0 0.6
05:20 14.8 14.7 99 1012.4 14.5 W 19.7 0.0 0.6
05:21 14.7 14.6 99 1012.4 11.4 N 19.7 0.0 0.6
05:22 14.7 14.6 99 1012.2 16.8 W 19.0 0.0 0.6
05:23 14.7 14.6 99 1012.3 14.5 WNW 19.0 0.0 0.6
05:24 14.7 14.6 99 1012.4 13.6 W 19.0 0.0 0.6
05:25 14.7 14.6 99 1012.3 15.9 W 19.0 0.0 0.6
05:26 14.7 14.6 99 1012.4 19.0 NW 19.0 0.0 0.6
05:27 14.7 14.4 98 1012.3 16.8 NNW 19.0 0.0 0.6
05:28 14.6 14.3 98 1012.5 16.8 W 19.0 0.0 0.6
05:29 14.6 14.3 98 1012.6 18.3 NW 19.0 0.0 0.6
05:30 14.6 14.3 98 1012.6 20.6 W 20.6 0.0 0.6
05:31 14.5 14.2 98 1012.4 15.9 WNW 20.6 0.0 0.6
05:32 14.4 14.1 98 1012.6 15.9 W 20.6 0.0 0.6
05:33 14.4 14.1 98 1012.7 15.2 N 20.6 0.0 0.6
05:34 14.3 14.0 98 1012.4 15.2 W 20.6 0.0 0.6
05:35 14.3 14.0 98 1012.5 14.5 W 20.6 0.0 0.6
05:36 14.2 13.9 98 1012.3 13.0 W 20.6 0.0 0.6
05:37 14.2 13.9 98 1012.4 16.8 W 20.6 0.0 0.6
05:38 14.2 13.9 98 1012.4 16.8 W 20.6 0.0 0.6
05:39 14.1 13.8 98 1012.5 16.8 W 20.6 0.0 0.6
05:40 14.1 13.8 98 1012.5 15.9 W 16.8 0.0 0.6
05:41 14.1 13.8 98 1012.6 14.5 NW 16.8 0.0 0.6
05:42 14.0 13.7 98 1012.5 18.3 W 18.3 0.0 0.6
05:43 14.0 13.7 98 1012.7 17.4 N 18.3 0.0 0.6
05:44 13.9 13.6 98 1012.7 13.6 WNW 18.3 0.0 0.6
05:45 13.9 13.6 98 1012.8 14.5 WNW 18.3 0.0 0.6
05:46 13.9 13.4 97 1012.7 15.9 N 18.3 0.0 0.6
05:47 13.9 13.4 97 1012.6 13.6 W 18.3 0.0 0.6
05:48 13.9 13.4 97 1012.7 16.8 NW 18.3 0.0 0.6
05:49 13.9 13.4 97 1012.8 16.8 NW 18.3 0.0 0.6
05:50 13.8 13.3 97 1012.7 16.8 W 18.3 0.0 0.6
05:51 13.8 13.3 97 1012.8 16.8 N 18.3 0.0 0.6
05:52 13.8 13.3 97 1012.6 13.0 W 18.3 0.0 0.6
05:53 13.8 13.3 97 1012.7 12.1 SW 17.4 0.0 0.6
05:54 13.8 13.3 97 1012.6 11.4 W 16.8 0.0 0.6
05:55 13.8 13.3 97 1012.7 10.7 SW 16.8 0.0 0.6
05:56 13.8 13.3 97 1012.7 12.1 W 16.8 0.0 0.6
05:57 13.8 13.3 97 1012.7 18.3 NNW 18.3 0.0 0.6
05:58 13.8 13.3 97 1012.5 18.3 NW 18.3 0.0 0.6
05:59 13.8 13.3 97 1012.7 14.5 W 18.3 0.0 0.6
06:00 13.8 13.3 97 1012.6 10.7 SW 18.3 0.0 0.6
06:01 13.7 13.2 97 1012.8 13.0 W 18.3 0.0 0.6
06:02 13.7 13.2 97 1012.7 13.0 W 18.3 0.0 0.6
06:03 13.7 13.2 97 1012.7 11.4 W 18.3 0.0 0.6
06:04 13.7 13.2 97 1012.7 10.7 N 18.3 0.0 0.6
06:05 13.7 13.2 97 1012.9 13.0 W 18.3 0.0 0.6
06:06 13.7 13.2 97 1012.9 13.0 W 18.3 0.0 0.6
06:07 13.7 13.2 97 1012.9 11.4 N 18.3 0.0 0.6
06:08 13.7 13.2 97 1012.8 10.7 NW 14.5 0.0 0.6
06:09 13.7 13.2 97 1012.5 12.1 W 14.5 0.0 0.6
06:10 13.7 13.2 97 1013.0 13.6 WSW 14.5 0.0 0.6
06:11 13.7 13.2 97 1013.0 13.0 W 13.6 0.0 0.6
06:12 13.7 13.2 97 1012.9 13.0 N 13.6 0.0 0.6
06:13 13.8 13.3 97 1013.0 11.4 W 13.6 0.0 0.6
06:14 13.8 13.3 97 1013.0 11.4 W 13.6 0.0 0.6
06:15 13.8 13.3 97 1013.0 10.7 W 13.6 0.0 0.6
06:16 13.7 13.2 97 1013.0 15.9 W 15.9 0.0 0.6
06:17 13.7 13.2 97 1013.1 16.8 W 16.8 0.0 0.6
06:18 13.7 13.2 97 1012.7 16.8 NW 16.8 0.0 0.6
06:19 13.7 13.2 97 1013.0 16.8 NW 16.8 0.0 0.6
06:20 13.7 13.2 97 1013.0 13.0 N 16.8 0.0 0.6
06:21 13.7 13.2 97 1012.6 12.1 NE 16.8 0.0 0.6
06:22 13.7 13.2 97 1013.0 13.6 WNW 16.8 0.0 0.6
06:23 13.6 13.1 97 1013.2 11.4 W 16.8 0.0 0.6
06:24 13.6 13.1 97 1013.0 9.2 N 16.8 0.0 0.6
06:25 13.6 13.1 97 1013.0 9.2 N 16.8 0.0 0.6
06:26 13.6 13.1 97 1013.0 6.9 W 16.8 0.0 0.6
06:27 13.6 13.1 97 1013.2 9.8 SW 16.8 0.0 0.6
06:28 13.6 13.1 97 1013.0 16.8 NNW 16.8 0.0 0.6
06:29 13.6 13.1 97 1013.1 13.0 WNW 16.8 0.0 0.6
06:30 13.6 13.1 97 1012.9 11.4 W 16.8 0.0 0.6
06:31 13.6 13.1 97 1013.0 6.9 WNW 16.8 0.0 0.6
06:32 13.6 13.1 97 1013.1 6.9 N 16.8 0.0 0.6
06:33 13.6 13.1 97 1013.0 9.8 N 16.8 0.0 0.6
06:34 13.6 13.1 97 1013.0 9.8 N 16.8 0.0 0.6
06:35 13.5 13.0 97 1013.0 19.0 NW 19.0 0.0 0.6
06:36 13.5 13.0 97 1013.1 13.0 N 19.0 0.0 0.6
06:37 13.5 13.0 97 1012.9 13.0 N 19.0 0.0 0.6
06:38 13.5 13.0 97 1013.1 10.7 SW 19.0 0.0 0.6
06:39 13.5 13.0 97 1012.9 10.7 WNW 19.0 0.0 0.6
06:40 13.5 13.0 97 1013.1 9.2 W 19.0 0.0 0.6
06:41 13.4 12.9 97 1013.3 14.5 W 19.0 0.0 0.6
06:42 13.4 12.9 97 1013.0 15.2 WNW 19.0 0.0 0.6
06:43 13.4 12.9 97 1013.2 12.1 W 19.0 0.0 0.6
06:44 13.4 12.9 97 1013.1 14.5 W 19.0 0.0 0.6
06:45 13.4 12.9 97 1013.2 10.7 NW 15.2 0.0 0.6
06:46 13.4 12.9 97 1013.1 8.3 W 15.2 0.0 0.6
06:47 13.4 12.9 97 1013.0 9.8 NW 15.2 0.0 0.6
06:48 13.4 12.9 97 1013.1 15.9 W 15.9 0.0 0.6
06:49 13.4 12.9 97 1013.1 15.9 NW 15.9 0.0 0.6
06:50 13.4 12.9 97 1013.1 13.0 WNW 15.9 0.0 0.6
06:51 13.4 12.9 97 1013.1 12.1 NW 15.9 0.0 0.6
06:52 13.4 12.9 97 1013.3 12.1 NW 15.9 0.0 0.6
06:53 13.4 12.9 97 1013.4 10.7 N 15.9 0.0 0.6
06:54 13.3 12.8 97 1013.0 15.9 W 15.9 0.0 0.6
06:55 13.3 12.8 97 1013.1 10.7 N 15.9 0.0 0.6
06:56 13.3 12.8 97 1013.3 13.6 SW 15.9 0.0 0.6
06:57 13.3 12.8 97 1013.2 9.2 W 15.9 0.0 0.6
06:58 13.3 12.8 97 1013.3 14.5 N 15.9 0.0 0.6
06:59 13.3 12.8 97 1013.3 13.6 NNW 15.9 0.0 0.6
07:00 13.3 12.8 97 1013.2 13.0 W 15.9 0.0 0.6
07:01 13.3 12.8 97 1013.2 13.0 W 15.9 0.0 0.6
07:02 13.3 12.8 97 1013.2 13.0 W 15.9 0.0 0.6
07:03 13.3 12.8 97 1013.0 15.9 N 15.9 0.0 0.6
07:04 13.3 12.8 97 1013.1 13.0 W 15.9 0.0 0.6
07:05 13.3 12.8 97 1013.3 13.0 N 15.9 0.0 0.6
07:06 13.3 12.8 97 1013.3 13.6 SW 15.9 0.0 0.6
07:07 13.2 12.7 97 1013.3 12.1 WNW 15.9 0.0 0.6
07:08 13.2 12.7 97 1013.3 10.7 N 15.9 0.0 0.6
07:09 13.2 12.7 97 1013.4 12.1 W 15.9 0.0 0.6
07:10 13.2 12.7 97 1013.3 9.2 N 15.9 0.0 0.6
07:11 13.2 12.7 97 1013.4 11.4 WNW 15.9 0.0 0.6
07:12 13.3 12.8 97 1013.2 9.2 N 15.9 0.0 0.6
07:13 13.3 12.8 97 1013.3 9.2 NW 15.9 0.0 0.6
07:14 13.3 12.8 97 1013.4 13.6 W 13.6 0.0 0.6
07:15 13.3 12.8 97 1013.4 13.0 W 13.6 0.0 0.6
07:16 13.3 12.8 97 1013.5 11.4 W 13.6 0.0 0.6
07:17 13.3 12.8 97 1013.5 11.4 W 13.6 0.0 0.6
07:18 13.3 12.8 97 1013.2 11.4 WNW 13.6 0.0 0.6
07:19 13.3 12.7 96 1013.2 12.1 NW 13.6 0.0 0.6
07:20 13.3 12.7 96 1013.3 13.6 W 13.6 0.0 0.6
07:21 13.3 12.7 96 1013.4 12.1 NW 13.6 0.0 0.6
07:22 13.3 12.7 96 1013.3 11.4 W 13.6 0.0 0.6
07:23 13.3 12.7 96 1013.5 9.2 W 13.6 0.0 0.6
07:24 13.3 12.7 96 1013.5 13.6 N 13.6 0.0 0.6
07:25 13.3 12.7 96 1013.4 9.8 W 13.6 0.0 0.6
07:26 13.3 12.7 96 1013.2 11.4 N 13.6 0.0 0.6
07:27 13.3 12.7 96 1013.5 10.7 W 13.6 0.0 0.6
07:28 13.3 12.7 96 1013.3 11.4 W 13.6 0.0 0.6
07:29 13.3 12.7 96 1013.2 11.4 W 13.6 0.0 0.6
07:30 13.4 12.8 96 1013.6 9.8 SW 13.6 0.0 0.6
07:31 13.4 12.8 96 1013.3 9.8 W 13.6 0.0 0.6
07:32 13.4 12.8 96 1013.3 10.7 NW 13.6 0.0 0.6
07:33 13.4 12.8 96 1013.5 8.3 NW 13.6 0.0 0.6
07:34 13.4 12.8 96 1013.5 6.9 WNW 13.6 0.0 0.6
07:35 13.4 12.8 96 1013.6 10.7 W 13.6 0.0 0.6
07:36 13.4 12.8 96 1013.7 8.3 W 12.1 0.0 0.6
07:37 13.4 12.8 96 1013.6 9.2 N 12.1 0.0 0.6
07:38 13.5 12.9 96 1013.6 9.2 N 12.1 0.0 0.6
07:39 13.5 12.9 96 1013.5 11.4 SW 12.1 0.0 0.6
07:40 13.5 12.9 96 1013.4 11.4 WNW 12.1 0.0 0.6
07:41 13.5 12.9 96 1013.6 13.0 W 13.0 0.0 0.6
07:42 13.5 12.9 96 1013.8 10.7 W 13.0 0.0 0.6
07:43 13.5 12.9 96 1013.7 13.6 NW 13.6 0.0 0.6
07:44 13.5 12.9 96 1013.6 13.0 W 13.6 0.0 0.6
07:45 13.5 12.9 96 1013.6 13.0 W 13.6 0.0 0.6
07:46 13.5 12.9 96 1013.8 9.8 N 13.6 0.0 0.6
07:47 13.5 12.9 96 1013.6 15.2 W 15.2 0.0 0.6
07:48 13.5 12.9 96 1013.7 15.2 W 15.2 0.0 0.6
07:49 13.5 12.7 95 1013.5 15.2 W 15.2 0.0 0.6
07:50 13.5 12.7 95 1013.8 15.9 W 15.9 0.0 0.6
07:51 13.5 12.7 95 1013.8 12.1 NW 15.9 0.0 0.6
07:52 13.5 12.7 95 1013.8 14.5 W 15.9 0.0 0.6
07:53 13.5 12.7 95 1013.8 13.0 W 15.9 0.0 0.6
07:54 13.5 12.7 95 1014.0 13.6 NNW 15.9 0.0 0.6
07:55 13.5 12.7 95 1013.8 12.1 W 15.9 0.0 0.6
07:56 13.5 12.7 95 1013.9 13.6 N 15.9 0.0 0.6
07:57 13.5 12.7 95 1013.9 11.4 W 15.9 0.0 0.6
07:58 13.5 12.7 95 1013.9 12.1 SW 15.9 0.0 0.6
07:59 13.5 12.7 95 1013.8 12.1 W 15.9 0.0 0.6
08:00 13.6 12.8 95 1013.8 10.7 W 15.9 0.0 0.6
08:01 13.6 12.8 95 1013.9 10.7 W 14.5 0.0 0.6
08:02 13.6 12.8 95 1013.8 10.7 W 14.5 0.0 0.6
08:03 13.6 12.7 94 1014.1 11.4 W 14.5 0.0 0.6
08:04 13.6 12.7 94 1013.8 12.1 W 13.6 0.0 0.6
08:05 13.6 12.7 94 1014.1 13.6 NW 13.6 0.0 0.6
08:06 13.6 12.7 94 1014.0 13.6 W 13.6 0.0 0.6
08:07 13.6 12.7 94 1013.7 11.4 W 13.6 0.0 0.6
08:08 13.6 12.7 94 1014.2 7.6 W 13.6 0.0 0.6
08:09 13.7 12.8 94 1013.8 7.6 W 13.6 0.0 0.6
08:10 13.7 12.8 94 1013.8 9.8 WNW 13.6 0.0 0.6
08:11 13.7 12.8 94 1014.1 9.2 W 13.6 0.0 0.6
08:12 13.7 12.8 94 1014.1 9.2 W 13.6 0.0 0.6
08:13 13.7 12.8 94 1014.1 9.2 W 13.6 0.0 0.6
08:14 13.7 12.8 94 1014.0 12.1 W 13.6 0.0 0.6
08:15 13.7 12.6 93 1014.1 9.8 WNW 13.6 0.0 0.6
08:16 13.7 12.6 93 1014.1 8.3 W 13.6 0.0 0.6
08:17 13.7 12.6 93 1014.1 9.8 W 12.1 0.0 0.6
08:18 13.7 12.6 93 1014.0 9.2 W 12.1 0.0 0.6
08:19 13.7 12.6 93 1014.1 13.0 N 13.0 0.0 0.6
08:20 13.7 12.6 93 1014.3 9.2 WNW 13.0 0.0 0.6
08:21 13.7 12.6 93 1014.2 11.4 WNW 13.0 0.0 0.6
08:22 13.7 12.6 93 1014.4 13.0 W 13.0 0.0 0.6
08:23 13.7 12.4 92 1014.2 7.6 N 13.0 0.0 0.6
08:24 13.7 12.4 92 1014.2 9.8 SW 13.0 0.0 0.6
08:25 13.7 12.4 92 1014.3 9.8 W 13.0 0.0 0.6
08:26 13.7 12.4 92 1014.5 9.8 N 13.0 0.0 0.6
08:27 13.7 12.4 92 1014.3 7.6 N 13.0 0.0 0.6
08:28 13.7 12.4 92 1014.5 9.2 NW 13.0 0.0 0.6
08:29 13.7 12.4 92 1014.3 11.4 W 13.0 0.0 0.6
08:30 13.7 12.4 92 1014.3 10.7 NW 13.0 0.0 0.6
08:31 13.7 12.4 92 1014.5 12.1 WNW 13.0 0.0 0.6
08:32 13.7 12.4 92 1014.4 11.4 NW 13.0 0.0 0.6
08:33 13.8 12.4 91 1014.3 13.6 W 13.6 0.0 0.6
08:34 13.8 12.4 91 1014.3 9.8 NW 13.6 0.0 0.6
08:35 13.8 12.4 91 1014.5 9.8 W 13.6 0.0 0.6
08:36 13.8 12.4 91 1014.3 14.5 NW 14.5 0.0 0.6
08:37 13.8 12.4 91 1014.3 14.5 W 14.5 0.0 0.6
08:38 13.8 12.4 91 1014.6 13.0 SW 14.5 0.0 0.6
08:39 13.8 12.4 91 1014.5 13.0 W 14.5 0.0 0.6
08:40 13.8 12.4 91 1014.4 11.4 W 14.5 0.0 0.6
08:41 13.8 12.4 91 1014.4 11.4 W 14.5 0.0 0.6
08:42 13.8 12.2 90 1014.3 17.4 SW 17.4 0.0 0.6
08:43 13.8 12.2 90 1014.4 15.9 NW 17.4 0.0 0.6
08:44 13.8 12.2 90 1014.3 14.5 W 17.4 0.0 0.6
08:45 13.8 12.2 90 1014.4 19.0 NW 19.0 0.0 0.6
08:46 13.8 12.2 90 1014.5 10.7 W 19.0 0.0 0.6
08:47 13.8 12.0 89 1014.6 17.4 W 19.0 0.0 0.6
08:48 13.8 11.9 88 1014.5 14.5 W 22.1 0.0 0.6
08:49 13.8 11.9 88 1014.7 15.9 W 22.1 0.0 0.6
08:50 13.8 11.9 88 1014.7 13.6 W 22.1 0.0 0.6
08:51 13.8 11.7 87 1014.7 10.7 NW 22.1 0.0 0.6
08:52 13.8 11.7 87 1014.6 13.6 NW 22.1 0.0 0.6
08:53 13.8 11.7 87 1014.5 13.0 W 22.1 0.0 0.6
08:54 13.8 11.7 87 1014.6 15.9 SW 22.1 0.0 0.6
08:55 13.9 11.6 86 1014.8 19.0 W 22.1 0.0 0.6
08:56 13.9 11.6 86 1014.9 16.8 W 22.1 0.0 0.6
08:57 13.9 11.6 86 1014.7 13.6 N 22.1 0.0 0.6
08:58 13.9 11.6 86 1014.7 18.3 W 22.1 0.0 0.6
08:59 13.9 11.4 85 1014.7 15.2 W 19.0 0.0 0.6
09:00 13.9 11.4 85 1014.6 15.2 W 19.0 0.0 0.6
09:01 13.9 11.4 85 1014.9 15.2 W 19.0 0.0 0.6
09:02 13.9 11.4 85 1014.7 15.2 W 19.0 0.0 0.6
09:03 13.9 11.2 84 1014.6 16.8 NW 19.0 0.0 0.6
09:04 14.0 11.3 84 1014.8 15.2 NW 19.0 0.0 0.6
09:05 14.0 11.3 84 1014.7 13.6 N 18.3 0.0 0.6
09:06 14.0 11.3 84 1014.6 9.8 W 18.3 0.0 0.6
09:07 14.0 11.3 84 1014.9 14.5 WSW 18.3 0.0 0.6
09:08 14.1 11.3 83 1014.8 15.9 WSW 19.0 0.0 0.6
09:09 14.1 11.3 83 1014.8 15.9 WSW 19.0 0.0 0.6
09:10 14.1 11.3 83 1014.8 13.6 NW 19.0 0.0 0.6
09:11 14.1 11.3 83 1014.8 15.9 NW 19.0 0.0 0.6
09:12 14.1 11.3 83 1014.8 14.5 NW 19.0 0.0 0.6
09:13 14.1 11.3 83 1014.9 15.2 W 19.0 0.0 0.6
09:14 14.1 11.3 83 1014.9 15.2 NW 19.0 0.0 0.6
09:15 14.1 11.1 82 1014.9 19.0 SW 19.0 0.0 0.6
09:16 14.1 11.1 82 1014.8 22.1 WNW 22.1 0.0 0.6
09:17 14.1 11.1 82 1015.0 13.0 W 22.1 0.0 0.6
09:18 14.1 11.1 82 1015.0 14.5 W 22.1 0.0 0.6
09:19 14.1 11.1 82 1014.9 15.2 SW 22.1 0.0 0.6
09:20 14.1 10.9 81 1014.9 15.2 W 22.1 0.0 0.6
09:21 14.2 11.0 81 1015.0 15.2 NW 22.1 0.0 0.6
09:22 14.2 11.0 81 1014.9 13.0 SW 22.1 0.0 0.6
09:23 14.2 11.0 81 1014.9 13.0 SW 22.1 0.0 0.6
09:24 14.3 11.1 81 1015.1 19.7 S 22.1 0.0 0.6
09:25 14.3 11.1 81 1015.1 13.6 WNW 22.1 0.0 0.6
09:26 14.3 11.1 81 1015.0 17.4 NW 22.1 0.0 0.6
09:27 14.4 11.0 80 1015.1 13.6 W 19.7 0.0 0.6
09:28 14.4 11.0 80 1015.0 14.5 NW 19.7 0.0 0.6
09:29 14.4 11.0 80 1015.0 16.8 W 19.7 0.0 0.6
09:30 14.5 11.1 80 1014.8 20.6 W 20.6 0.0 0.6
09:31 14.5 11.1 80 1015.0 20.6 W 20.6 0.0 0.6
09:32 14.5 10.9 79 1014.9 14.5 W 20.6 0.0 0.6
09:33 14.5 10.9 79 1015.0 17.4 NW 20.6 0.0 0.6
09:34 14.6 11.0 79 1015.1 17.4 W 20.6 0.0 0.6
09:35 14.6 11.0 79 1015.1 13.6 WNW 20.6 0.0 0.6
09:36 14.7 10.9 78 1014.9 15.9 SW 20.6 0.0 0.6
09:37 14.7 10.9 78 1014.9 17.4 W 20.6 0.0 0.6
09:38 14.7 10.9 78 1014.9 17.4 W 20.6 0.0 0.6
09:39 14.8 11.0 78 1015.1 14.5 NW 20.6 0.0 0.6
09:40 14.8 11.0 78 1015.0 14.5 W 20.6 0.0 0.6
09:41 14.9 11.1 78 1014.9 12.1 NW 20.6 0.0 0.6
09:42 14.9 11.1 78 1014.8 13.6 N 17.4 0.0 0.6
09:43 15.0 11.2 78 1014.9 14.5 SW 17.4 0.0 0.6
09:44 15.1 11.3 78 1015.1 11.4 W 17.4 0.0 0.6
09:45 15.1 11.3 78 1014.8 13.0 SW 17.4 0.0 0.6
09:46 15.1 11.3 78 1014.8 14.5 NW 17.4 0.0 0.6
09:47 15.2 11.4 78 1014.8 16.8 WNW 17.4 0.0 0.6
09:48 15.2 11.6 79 1015.0 10.7 W 16.8 0.0 0.6
09:49 15.2 11.4 78 1015.1 11.4 W 16.8 0.0 0.6
09:50 15.2 11.6 79 1014.9 12.1 W 16.8 0.0 0.6
09:51 15.2 11.6 79 1014.9 13.6 NW 16.8 0.0 0.6
09:52 15.3 11.7 79 1014.9 13.6 NW 16.8 0.0 0.6
09:53 15.2 11.8 80 1015.1 10.7 NW 16.8 0.0 0.6
09:54 15.2 11.8 80 1014.9 13.6 NW 16.8 0.0 0.6
09:55 15.1 11.7 80 1014.9 13.6 NW 16.8 0.0 0.6
09:56 15.1 11.7 80 1014.7 12.1 W 16.8 0.0 0.6
09:57 15.0 11.4 79 1014.8 10.7 NW 16.8 0.0 0.6
09:58 15.0 11.2 78 1015.0 17.4 SW 17.4 0.0 0.6
09:59 15.0 11.2 78 1014.8 18.3 SW 18.3 0.0 0.6
10:00 15.0 11.2 78 1015.0 15.9 NW 18.3 0.0 0.6
10:01 15.0 11.2 78 1015.0 15.9 NW 18.3 0.0 0.6
10:02 15.0 11.2 78 1014.8 15.9 NW 18.3 0.0 0.6
10:03 15.0 11.2 78 1015.0 15.9 NW 18.3 0.0 0.6
10:04 15.0 11.2 78 1014.8 15.9 NW 18.3 0.0 0.6
10:05 14.9 10.7 76 1015.0 15.9 W 18.3 0.0 0.6
10:06 14.9 10.7 76 1015.0 15.9 W 18.3 0.0 0.6
10:07 14.9 10.7 76 1015.2 17.4 W 18.3 0.0 0.6
10:08 14.9 10.7 76 1015.0 15.9 W 18.3 0.0 0.6
10:09 14.9 10.7 76 1015.0 15.9 NW 18.3 0.0 0.6
10:10 15.0 10.8 76 1015.1 21.3 NW 21.3 0.0 0.6
10:11 15.0 10.8 76 1015.2 21.3 W 21.3 0.0 0.6
10:12 15.1 11.1 77 1015.0 13.6 N 21.3 0.0 0.6
10:13 15.2 11.2 77 1014.9 16.8 NW 21.3 0.0 0.6
10:14 15.2 11.2 77 1015.1 12.1 NW 21.3 0.0 0.6
10:15 15.2 11.2 77 1015.1 15.9 W 21.3 0.0 0.6
10:16 15.3 11.1 76 1015.1 9.8 N 21.3 0.0 0.6
10:17 15.3 11.1 76 1015.1 11.4 NW 21.3 0.0 0.6
10:18 15.3 10.9 75 1015.0 14.5 W 21.3 0.0 0.6
10:19 15.3 10.9 75 1015.1 14.5 W 21.3 0.0 0.6
10:20 15.3 10.7 74 1015.2 15.2 W 21.3 0.0 0.6
10:21 15.3 10.7 74 1014.9 15.2 NW 21.3 0.0 0.6
10:22 15.2 10.6 74 1015.1 12.1 W 16.8 0.0 0.6
10:23 15.2 10.6 74 1015.2 14.5 W 16.8 0.0 0.6
10:24 15.2 10.4 73 1015.1 14.5 W 15.9 0.0 0.6
10:25 15.2 10.4 73 1015.1 14.5 W 15.9 0.0 0.6
10:26 15.2 10.4 73 1015.3 13.0 W 15.2 0.0 0.6
10:27 15.2 10.4 73 1015.3 15.2 NW 15.2 0.0 0.6
10:28 15.3 10.3 72 1015.1 12.1 W 15.2 0.0 0.6
10:29 15.3 10.5 73 1015.0 15.2 W 15.2 0.0 0.6
10:30 15.3 10.5 73 1015.1 15.9 W 15.9 0.0 0.6
10:31 15.2 10.4 73 1015.5 13.6 W 15.9 0.0 0.6
10:32 15.2 10.4 73 1015.4 12.1 W 15.9 0.0 0.6
10:33 15.1 10.3 73 1015.1 12.1 W 15.9 0.0 0.6
10:34 15.1 10.3 73 1015.5 12.1 W 15.9 0.0 0.6
10:35 15.1 10.3 73 1015.1 13.0 W 15.9 0.0 0.6
10:36 15.1 10.3 73 1015.4 15.2 W 15.9 0.0 0.6
10:37 15.1 10.3 73 1015.5 13.6 NW 15.9 0.0 0.6
10:38 15.1 10.3 73 1015.4 13.6 SW 15.9 0.0 0.6
10:39 15.1 10.3 73 1015.3 16.8 W 24.4 0.0 0.6
10:40 15.1 10.3 73 1015.3 17.4 W 24.4 0.0 0.6
10:41 15.1 10.1 72 1015.5 14.5 NW 24.4 0.0 0.6
10:42 15.1 10.1 72 1015.4 14.5 N 24.4 0.0 0.6
10:43 15.2 10.2 72 1015.4 16.8 W 24.4 0.0 0.6
10:44 15.2 10.2 72 1015.4 13.6 W 24.4 0.0 0.6
10:45 15.2 10.0 71 1015.4 14.5 SW 24.4 0.0 0.6
10:46 15.2 10.2 72 1015.4 16.8 W 24.4 0.0 0.6
10:47 15.3 10.3 72 1015.5 13.6 W 24.4 0.0 0.6
10:48 15.4 10.4 72 1015.6 17.4 NW 24.4 0.0 0.6
10:49 15.5 10.5 72 1015.5 17.4 E 17.4 0.0 0.6
10:50 15.5 10.3 71 1015.3 18.3 W 18.3 0.0 0.6
10:51 15.6 10.4 71 1015.6 18.3 SW 18.3 0.0 0.6
10:52 15.6 10.4 71 1015.5 17.4 NW 18.3 0.0 0.6
10:53 15.6 10.2 70 1015.6 13.0 W 18.3 0.0 0.6
10:54 15.7 10.3 70 1015.6 19.7 NW 19.7 0.0 0.6
10:55 15.7 10.3 70 1015.3 14.5 NW 19.7 0.0 0.6
10:56 15.7 10.3 70 1015.4 13.0 W 19.7 0.0 0.6
10:57 15.8 10.3 70 1015.3 13.6 NNW 19.7 0.0 0.6
10:58 15.8 10.1 69 1015.3 13.6 W 19.7 0.0 0.6
10:59 15.8 9.9 68 1015.5 19.0 W 19.7 0.0 0.6
11:00 15.9 10.0 68 1015.4 19.7 W 19.7 0.0 0.6
11:01 15.9 10.0 68 1015.3 19.7 W 19.7 0.0 0.6
11:02 15.9 10.0 68 1015.4 19.7 W 19.7 0.0 0.6
11:03 16.0 9.9 67 1015.5 19.7 W 19.7 0.0 0.6
11:04 16.0 9.9 67 1015.5 13.6 WNW 19.7 0.0 0.6
11:05 16.1 9.8 66 1015.4 14.5 W 19.7 0.0 0.6
11:06 16.1 9.8 66 1015.4 14.5 W 19.7 0.0 0.6
11:07 16.1 9.5 65 1015.4 13.0 NW 19.7 0.0 0.6
11:08 16.1 9.5 65 1015.5 13.6 W 19.7 0.0 0.6
11:09 16.0 9.4 65 1015.5 17.4 NW 19.7 0.0 0.6
11:10 16.0 9.4 65 1015.6 17.4 W 19.7 0.0 0.6
11:11 15.9 9.3 65 1015.5 17.4 W 19.7 0.0 0.6
11:12 15.9 9.3 65 1015.5 17.4 W 19.7 0.0 0.6
11:13 15.9 9.3 65 1015.3 17.4 W 19.7 0.0 0.6
11:14 15.7 9.1 65 1015.4 15.9 W 17.4 0.0 0.6
11:15 15.6 9.3 66 1015.4 15.2 NW 17.4 0.0 0.6
11:16 15.6 9.3 66 1015.5 18.3 W 18.3 0.0 0.6
11:17 15.5 9.0 65 1015.6 15.2 NW 18.3 0.0 0.6
11:18 15.4 8.9 65 1015.5 19.7 W 19.7 0.0 0.6
11:19 15.4 8.9 65 1015.7 17.4 W 19.7 0.0 0.6
11:20 15.4 8.9 65 1015.8 17.4 W 19.7 0.0 0.6
11:21 15.4 9.1 66 1015.6 14.5 NW 19.7 0.0 0.6
11:22 15.5 9.4 67 1015.7 14.5 NW 19.7 0.0 0.6
11:23 15.6 9.3 66 1015.5 14.5 W 19.7 0.0 0.6
11:24 15.6 9.1 65 1015.6 19.7 W 19.7 0.0 0.6
11:25 15.6 9.1 65 1015.4 21.3 WNW 21.3 0.0 0.6
11:26 15.6 9.1 65 1015.5 19.7 W 21.3 0.0 0.6
11:27 15.6 9.1 65 1015.5 17.4 NW 21.3 0.0 0.6
11:28 15.6 9.1 65 1015.4 21.3 NW 21.3 0.0 0.6
11:29 15.6 9.1 65 1015.4 21.3 NW 21.3 0.0 0.6
11:30 15.6 9.1 65 1015.6 21.3 NW 21.3 0.0 0.6
11:31 15.8 9.5 66 1015.5 16.8 NW 21.3 0.0 0.6
11:32 15.8 9.2 65 1015.8 19.7 W 21.3 0.0 0.6
11:33 15.8 9.2 65 1015.6 21.3 SW 21.3 0.0 0.6
11:34 15.7 9.1 65 1015.6 20.6 W 21.3 0.0 0.6
11:35 15.6 8.8 64 1015.7 16.8 WNW 21.3 0.0 0.6
11:36 15.6 8.6 63 1015.5 17.4 NW 21.3 0.0 0.6
11:37 15.5 8.5 63 1015.7 15.2 W 21.3 0.0 0.6
11:38 15.5 8.5 63 1015.6 19.7 W 21.3 0.0 0.6
11:39 15.5 8.7 64 1015.6 13.6 W 21.3 0.0 0.6
11:40 15.5 8.7 64 1015.8 13.6 SW 21.3 0.0 0.6
11:41 15.5 8.7 64 1015.8 13.6 NW 21.3 0.0 0.6
11:42 15.5 8.7 64 1015.6 15.9 W 21.3 0.0 0.6
11:43 15.6 8.8 64 1016.0 13.6 W 21.3 0.0 0.6
11:44 15.6 8.6 63 1015.6 17.4 NW 20.6 0.0 0.6
11:45 15.6 8.6 63 1015.9 17.4 WNW 19.7 0.0 0.6
11:46 15.6 8.4 62 1015.8 16.8 NNE 19.7 0.0 0.6
11:47 15.5 8.3 62 1015.6 17.4 NW 19.7 0.0 0.6
11:48 15.5 8.3 62 1015.8 18.3 NW 19.7 0.0 0.6
11:49 15.5 8.3 62 1016.0 15.2 W 19.0 0.0 0.6
11:50 15.5 8.3 62 1015.7 12.1 NNW 18.3 0.0 0.6
11:51 15.5 8.3 62 1015.9 14.5 SW 18.3 0.0 0.6
11:52 15.6 8.4 62 1015.6 12.1 SE 18.3 0.0 0.6
11:53 15.6 8.6 63 1015.9 10.7 SW 18.3 0.0 0.6
11:54 15.6 8.6 63 1015.9 10.7 SW 18.3 0.0 0.6
11:55 15.9 9.1 64 1015.8 16.8 W 18.3 0.0 0.6
11:56 16.0 9.2 64 1015.7 18.3 NNW 18.3 0.0 0.6
11:57 16.0 9.2 64 1015.7 18.3 NNW 18.3 0.0 0.6
11:58 16.0 9.2 64 1015.8 14.5 NW 18.3 0.0 0.6
11:59 16.2 9.4 64 1015.9 19.7 W 19.7 0.0 0.6
12:00 16.2 9.4 64 1015.8 19.7 W 19.7 0.0 0.6
12:01 16.2 9.4 64 1015.8 19.7 W 19.7 0.0 0.6
12:02 16.2 9.4 64 1015.9 19.7 W 19.7 0.0 0.6
12:03 16.2 9.4 64 1015.9 19.7 W 19.7 0.0 0.6
12:04 16.6 9.5 63 1015.8 19.7 W 19.7 0.0 0.6
12:05 16.6 9.5 63 1015.8 19.7 W 19.7 0.0 0.6
12:06 16.7 9.4 62 1016.0 19.0 NW 19.7 0.0 0.6
12:07 16.7 9.4 62 1016.0 23.5 SW 23.5 0.0 0.6
12:08 16.6 9.1 61 1015.8 21.3 N 23.5 0.0 0.6
12:09 16.6 8.8 60 1016.0 16.8 W 23.5 0.0 0.6
12:10 16.5 8.7 60 1015.9 22.1 SW 23.5 0.0 0.6
12:11 16.5 8.7 60 1016.0 22.1 SW 23.5 0.0 0.6
12:12 16.5 8.7 60 1016.0 18.3 S 23.5 0.0 0.6
12:13 16.5 8.7 60 1016.1 15.2 W 23.5 0.0 0.6
12:14 16.5 8.7 60 1016.2 17.4 SW 23.5 0.0 0.6
12:15 16.6 8.8 60 1016.0 19.7 NW 23.5 0.0 0.6
12:16 16.6 8.8 60 1016.3 13.6 SW 23.5 0.0 0.6
12:17 16.7 9.1 61 1016.2 19.7 W 23.5 0.0 0.6
12:18 16.8 9.2 61 1016.2 19.0 W 22.8 0.0 0.6
12:19 16.8 9.0 60 1016.0 15.2 W 22.8 0.0 0.6
12:20 16.7 8.9 60 1016.0 15.2 W 22.8 0.0 0.6
12:21 16.7 8.7 59 1016.2 19.7 NW 22.8 0.0 0.6
12:22 16.6 8.3 58 1015.9 18.3 W 22.8 0.0 0.6
12:23 16.6 8.6 59 1016.1 15.9 W 22.8 0.0 0.6
12:24 16.7 8.9 60 1016.0 17.4 W 22.8 0.0 0.6
12:25 16.7 8.9 60 1016.0 17.4 W 19.7 0.0 0.6
12:26 16.7 8.9 60 1015.9 15.9 NW 19.7 0.0 0.6
12:27 16.8 9.2 61 1016.0 15.9 W 19.7 0.0 0.6
12:28 16.9 9.3 61 1016.0 15.9 NW 19.7 0.0 0.6
12:29 16.9 9.3 61 1016.1 13.6 NW 19.7 0.0 0.6
12:30 17.0 9.4 61 1016.2 13.6 NW 19.7 0.0 0.6
12:31 17.1 9.5 61 1016.3 15.9 W 19.7 0.0 0.6
12:32 17.1 9.5 61 1016.3 13.6 W 18.3 0.0 0.6
12:33 17.1 9.5 61 1016.2 13.6 W 17.4 0.0 0.6
12:34 17.1 9.3 60 1016.1 17.4 W 17.4 0.0 0.6
12:35 17.2 9.4 60 1016.0 15.9 N 17.4 0.0 0.6
12:36 17.3 9.7 61 1016.2 24.4 W 24.4 0.0 0.6
12:37 17.3 9.5 60 1016.1 18.3 W 24.4 0.0 0.6
12:38 17.4 9.6 60 1015.9 18.3 W 24.4 0.0 0.6
12:39 17.4 9.6 60 1016.2 15.9 NNE 24.4 0.0 0.6
12:40 17.5 8.4 55 1016.1 21.3 N 24.4 0.0 0.6
12:41 17.4 9.3 59 1016.2 22.1 W 24.4 0.0 0.6
12:42 17.4 9.3 59 1016.4 19.0 W 24.4 0.0 0.6
12:43 17.2 8.6 57 1016.1 19.7 SW 24.4 0.0 0.6
12:44 17.2 8.6 57 1016.1 19.7 W 24.4 0.0 0.6
12:45 17.2 8.9 58 1016.0 21.3 W 24.4 0.0 0.6
12:46 17.2 8.9 58 1016.0 22.1 N 24.4 0.0 0.6
12:47 17.2 8.9 58 1016.0 16.8 SW 22.1 0.0 0.6
12:48 17.1 8.8 58 1015.9 16.8 NW 22.1 0.0 0.6
12:49 17.1 8.8 58 1016.0 16.8 W 22.1 0.0 0.6
12:50 17.1 8.8 58 1015.8 19.0 NW 22.1 0.0 0.6
12:51 17.0 8.7 58 1016.1 19.7 SW 22.1 0.0 0.6
12:52 16.9 8.8 59 1016.1 16.8 NW 22.1 0.0 0.6
12:53 16.9 8.8 59 1016.1 16.8 NW 22.1 0.0 0.6
12:54 16.8 8.5 58 1016.2 19.0 W 22.1 0.0 0.6
12:55 16.7 8.7 59 1016.3 22.1 W 22.1 0.0 0.6
12:56 16.6 8.6 59 1016.4 19.7 W 22.1 0.0 0.6
12:57 16.6 8.6 59 1016.4 17.4 N 22.1 0.0 0.6
12:58 16.5 8.5 59 1016.1 20.6 W 22.1 0.0 0.6
12:59 16.4 8.6 60 1016.1 22.1 SW 22.1 0.0 0.6
13:00 16.4 8.6 60 1016.3 17.4 W 22.1 0.0 0.6
13:01 16.4 8.6 60 1016.2 17.4 W 22.1 0.0 0.6
13:02 16.4 8.6 60 1016.1 17.4 W 22.1 0.0 0.6
13:03 16.2 8.7 61 1016.2 17.4 W 22.1 0.0 0.6
13:04 16.1 8.6 61 1016.2 20.6 W 22.1 0.0 0.6
13:05 16.1 8.6 61 1016.4 20.6 NW 22.1 0.0 0.6
13:06 16.1 8.6 61 1016.3 15.2 W 22.1 0.0 0.6
13:07 16.0 8.5 61 1016.1 15.2 SW 22.1 0.0 0.6
13:08 16.1 8.8 62 1016.2 13.0 W 22.1 0.0 0.6
13:09 16.2 9.4 64 1016.1 12.1 W 22.1 0.0 0.6
13:10 16.4 9.8 65 1016.1 13.0 W 20.6 0.0 0.6
13:11 16.6 9.8 64 1016.3 22.8 SW 22.8 0.0 0.6
13:12 16.7 9.9 64 1016.1 16.8 W 22.8 0.0 0.6
13:13 16.8 9.7 63 1016.1 19.7 W 22.8 0.0 0.6
13:14 16.9 9.8 63 1016.1 18.3 W 22.8 0.0 0.6
13:15 16.9 9.6 62 1016.2 20.6 W 22.8 0.0 0.6
13:16 16.9 9.6 62 1016.2 18.3 W 22.8 0.0 0.6
13:17 16.9 9.6 62 1016.3 23.5 WNW 23.5 0.0 0.6
13:18 16.7 9.1 61 1016.2 16.8 W 23.5 0.0 0.6
13:19 16.7 9.1 61 1016.4 21.3 W 23.5 0.0 0.6
13:20 16.6 8.8 60 1016.3 25.9 W 25.9 0.0 0.6
13:21 16.6 8.8 60 1016.5 25.9 W 25.9 0.0 0.6
13:22 16.5 9.0 61 1016.5 22.8 SW 25.9 0.0 0.6
13:23 16.5 9.0 61 1016.7 22.8 SW 25.9 0.0 0.6
13:24 16.5 8.7 60 1016.4 22.8 W 25.9 0.0 0.6
13:25 16.5 8.7 60 1016.4 22.8 W 25.9 0.0 0.6
13:26 16.5 8.7 60 1016.5 22.8 W 25.9 0.0 0.6
13:27 16.6 9.1 61 1016.4 15.2 SW 25.9 0.0 0.6
13:28 16.7 9.4 62 1016.4 17.4 W 25.9 0.0 0.6
13:29 16.7 9.1 61 1016.3 17.4 SW 25.9 0.0 0.6
13:30 16.8 9.2 61 1016.3 16.8 W 25.9 0.0 0.6
13:31 17.0 9.9 63 1016.5 10.7 W 25.9 0.0 0.6
13:32 17.1 9.8 62 1016.5 22.1 SW 24.4 0.0 0.6
13:33 17.1 9.5 61 1016.1 21.3 W 24.4 0.0 0.6
13:34 17.1 9.5 61 1016.4 21.3 W 24.4 0.0 0.6
13:35 17.1 9.5 61 1016.6 23.5 W 24.4 0.0 0.6
13:36 17.1 9.3 60 1016.5 21.3 SW 24.4 0.0 0.6
13:37 17.1 9.5 61 1016.5 21.3 W 24.4 0.0 0.6
13:38 17.1 9.5 61 1016.2 23.5 NW 24.4 0.0 0.6
13:39 17.1 9.5 61 1016.6 22.1 W 24.4 0.0 0.6
13:40 17.2 9.6 61 1016.4 22.1 W 24.4 0.0 0.6
13:41 17.2 9.6 61 1016.6 26.6 W 26.6 0.0 0.6
13:42 17.2 9.4 60 1016.5 26.6 SW 26.6 0.0 0.6
13:43 17.3 9.7 61 1016.5 18.3 W 26.6 0.0 0.6
13:44 17.3 9.7 61 1016.6 18.3 W 26.6 0.0 0.6
13:45 17.3 9.2 59 1016.5 20.6 W 26.6 0.0 0.6
13:46 17.2 8.6 57 1016.9 25.1 SW 26.6 0.0 0.6
13:47 17.2 8.4 56 1016.5 25.9 NW 26.6 0.0 0.6
13:48 17.1 8.0 55 1016.7 22.8 W 26.6 0.0 0.6
13:49 17.1 8.3 56 1016.9 19.7 SW 26.6 0.0 0.6
13:50 17.1 8.5 57 1016.8 26.6 SW 26.6 0.0 0.6
13:51 17.1 9.0 59 1016.6 22.1 W 26.6 0.0 0.6
13:52 17.2 9.4 60 1016.6 16.8 W 26.6 0.0 0.6
13:53 17.2 9.4 60 1016.6 16.8 W 26.6 0.0 0.6
13:54 17.3 9.5 60 1016.6 13.6 SW 26.6 0.0 0.6
13:55 17.4 9.6 60 1016.5 29.8 W 29.8 0.0 0.6
13:56 17.5 8.1 54 1016.6 25.1 N 29.8 0.0 0.6
13:57 17.5 8.1 54 1016.7 17.4 W 29.8 0.0 0.6
13:58 17.5 8.1 54 1016.7 15.2 W 29.8 0.0 0.6
13:59 17.5 8.1 54 1016.3 19.0 NW 29.8 0.0 0.6
14:00 17.4 8.8 57 1016.5 18.3 NW 29.8 0.0 0.6
14:01 17.4 8.8 57 1016.5 18.3 NW 29.8 0.0 0.6
14:02 17.4 8.8 57 1016.6 18.3 NW 29.8 0.0 0.6
14:03 17.4 8.8 57 1016.7 18.3 NW 29.8 0.0 0.6
14:04 17.4 8.8 57 1016.6 18.3 NW 29.8 0.0 0.6
14:05 17.5 7.3 51 1016.6 22.8 W 25.1 0.0 0.6
14:06 17.5 7.3 51 1016.5 25.9 W 25.9 0.0 0.6
14:07 17.6 7.4 51 1016.8 25.9 W 25.9 0.0 0.6
14:08 17.5 7.3 51 1016.9 22.1 SW 25.9 0.0 0.6
14:09 17.5 7.3 51 1016.5 24.4 N 25.9 0.0 0.6
14:10 17.5 7.3 51 1016.6 19.7 NW 25.9 0.0 0.6
14:11 17.5 7.3 51 1016.7 29.8 W 29.8 0.0 0.6
14:12 17.4 8.0 54 1016.7 18.3 W 29.8 0.0 0.6
14:13 17.4 8.0 54 1017.1 25.1 W 29.8 0.0 0.6
14:14 17.2 7.8 54 1016.4 22.1 NW 29.8 0.0 0.6
14:15 17.2 7.8 54 1016.7 20.6 SW 29.8 0.0 0.6
14:16 17.2 8.1 55 1016.8 19.7 W 29.8 0.0 0.6
14:17 17.2 8.1 55 1016.6 15.9 NW 29.8 0.0 0.6
14:18 17.2 8.1 55 1016.5 21.3 W 29.8 0.0 0.6
14:19 17.2 8.4 56 1016.6 21.3 W 29.8 0.0 0.6
14:20 17.1 8.3 56 1016.6 21.3 W 29.8 0.0 0.6
14:21 17.1 8.3 56 1016.6 21.3 W 29.8 0.0 0.6
14:22 17.1 8.5 57 1016.8 16.8 W 25.1 0.0 0.6
14:23 17.0 8.9 59 1016.7 15.2 W 25.1 0.0 0.6
14:24 17.0 9.2 60 1016.7 15.9 W 22.1 0.0 0.6
14:25 17.0 9.2 60 1016.7 18.3 W 21.3 0.0 0.6
14:26 17.0 9.2 60 1016.8 18.3 W 21.3 0.0 0.6
14:27 17.2 9.6 61 1016.8 22.1 SW 22.1 0.0 0.6
14:28 17.2 9.6 61 1016.7 22.1 SW 22.1 0.0 0.6
14:29 17.5 8.9 57 1016.6 15.9 NW 22.1 0.0 0.6
14:30 17.5 8.9 57 1016.7 15.9 NW 22.1 0.0 0.6
14:31 17.5 8.9 57 1016.7 15.9 NW 22.1 0.0 0.6
14:32 17.6 7.9 53 1016.8 24.4 W 24.4 0.0 0.6
14:33 17.6 7.6 52 1016.8 22.1 NE 24.4 0.0 0.6
14:34 17.5 7.5 52 1017.0 22.8 SW 24.4 0.0 0.6
14:35 17.5 7.5 52 1016.7 22.8 SW 24.4 0.0 0.6
14:36 17.5 7.5 52 1017.0 22.8 SW 24.4 0.0 0.6
14:37 17.5 7.5 52 1016.9 22.8 SW 24.4 0.0 0.6
14:38 17.5 7.5 52 1016.9 22.8 SW 24.4 0.0 0.6
14:39 17.5 7.5 52 1016.8 22.8 SW 24.4 0.0 0.6
14:40 17.6 7.6 52 1016.9 17.4 NW 24.4 0.0 0.6
14:41 17.6 7.6 52 1016.9 14.5 W 24.4 0.0 0.6
14:42 17.5 7.5 52 1016.8 14.5 SW 24.4 0.0 0.6
14:43 17.4 9.1 58 1016.8 18.3 NW 22.8 0.0 0.6
14:44 17.3 9.0 58 1017.0 16.8 W 22.8 0.0 0.6
14:45 17.2 8.9 58 1016.8 19.0 W 22.8 0.0 0.6
14:46 17.1 8.8 58 1017.0 16.8 W 22.8 0.0 0.6
14:47 17.1 8.8 58 1016.9 16.8 W 22.8 0.0 0.6
14:48 17.4 9.6 60 1017.0 23.5 W 23.5 0.0 0.6
14:49 17.5 8.4 55 1017.0 22.8 SW 23.5 0.0 0.6
14:50 17.5 8.4 55 1017.0 22.8 SW 23.5 0.0 0.6
14:51 17.5 8.1 54 1016.9 25.9 W 25.9 0.0 0.6
14:52 17.4 8.8 57 1017.2 23.5 W 25.9 0.0 0.6
14:53 17.3 8.7 57 1016.9 25.1 W 25.9 0.0 0.6
14:54 17.2 8.9 58 1017.0 14.5 W 25.9 0.0 0.6
14:55 17.1 9.0 59 1017.0 22.1 SW 25.9 0.0 0.6
14:56 17.1 9.3 60 1016.9 18.3 SW 25.9 0.0 0.6
14:57 17.2 9.4 60 1017.0 21.3 SW 25.9 0.0 0.6
14:58 17.1 9.3 60 1017.0 21.3 W 25.9 0.0 0.6
14:59 17.0 8.9 59 1017.0 20.6 W 25.9 0.0 0.6
15:00 16.9 8.8 59 1016.9 16.8 NW 25.9 0.0 0.6
15:01 16.9 8.8 59 1016.9 16.8 NW 25.9 0.0 0.6
15:02 16.9 8.8 59 1017.2 16.8 NW 25.1 0.0 0.6
15:03 16.9 8.8 59 1017.0 16.8 NW 22.1 0.0 0.6
15:04 16.9 8.8 59 1017.1 16.8 NW 22.1 0.0 0.6
15:05 17.0 8.9 59 1017.0 22.8 SW 22.8 0.0 0.6
15:06 17.0 8.9 59 1017.0 22.8 SW 22.8 0.0 0.6
15:07 17.0 9.2 60 1017.0 19.7 S 22.8 0.0 0.6
15:08 17.0 9.2 60 1017.2 23.5 W 23.5 0.0 0.6
15:09 17.0 9.2 60 1017.2 20.6 NW 23.5 0.0 0.6
15:10 17.1 9.3 60 1017.1 20.6 NW 23.5 0.0 0.6
15:11 17.1 9.3 60 1017.3 19.0 W 23.5 0.0 0.6
15:12 17.1 9.0 59 1017.0 16.8 NW 23.5 0.0 0.6
15:13 17.1 9.5 61 1017.2 15.9 NW 23.5 0.0 0.6
15:14 17.2 9.6 61 1017.4 19.0 N 23.5 0.0 0.6
15:16 17.2 9.1 59 1017.2 23.5 W 23.5 0.0 0.6
15:17 17.1 8.8 58 1017.1 23.5 N 23.5 0.0 0.6
15:18 17.2 9.4 60 1017.2 15.9 SW 23.5 0.0 0.6
15:19 17.4 9.8 61 1017.2 22.1 W 23.5 0.0 0.6
15:20 17.5 8.6 56 1017.2 22.1 W 23.5 0.0 0.6
15:21 17.5 8.1 54 1017.3 17.4 W 23.5 0.0 0.6
15:22 17.5 8.1 54 1017.5 21.3 W 23.5 0.0 0.6
15:23 17.6 8.5 55 1017.2 25.9 W 25.9 0.0 0.6
15:24 17.7 8.3 54 1017.2 19.0 W 25.9 0.0 0.6
15:25 17.7 8.3 54 1017.5 19.0 W 25.9 0.0 0.6
15:26 17.8 8.6 55 1017.3 22.1 W 25.9 0.0 0.6
15:27 17.8 8.6 55 1017.4 22.1 W 25.9 0.0 0.6
15:28 17.8 8.4 54 1017.3 13.0 N 25.9 0.0 0.6
15:29 17.8 8.4 54 1017.1 20.6 SW 25.9 0.0 0.6
15:30 17.7 8.3 54 1017.2 20.6 SW 25.9 0.0 0.6
15:31 17.5 8.1 54 1017.2 18.3 NW 25.9 0.0 0.6
15:32 17.4 9.1 58 1017.4 19.7 NW 25.9 0.0 0.6
15:33 17.4 9.1 58 1017.2 19.7 NW 25.9 0.0 0.6
15:34 17.1 9.3 60 1017.1 19.7 SW 22.1 0.0 0.6
15:35 16.9 9.3 61 1017.4 16.8 N 22.1 0.0 0.6
15:36 16.7 8.9 60 1017.3 15.2 W 22.1 0.0 0.6
15:37 16.7 8.9 60 1017.5 19.7 NW 20.6 0.0 0.6
15:38 16.7 8.9 60 1017.3 16.8 NW 20.6 0.0 0.6
15:39 16.8 9.2 61 1017.4 15.9 W 20.6 0.0 0.6
15:40 17.1 9.8 62 1017.4 18.3 W 19.7 0.0 0.6
15:41 17.2 10.1 63 1017.4 15.2 W 19.7 0.0 0.6
15:42 17.4 10.1 62 1017.5 22.8 W 22.8 0.0 0.6
15:43 17.4 10.1 62 1017.3 22.8 W 22.8 0.0 0.6
15:44 17.4 10.1 62 1017.3 22.8 W 22.8 0.0 0.6
15:45 17.4 10.1 62 1017.3 15.9 W 22.8 0.0 0.6
15:46 17.4 10.3 63 1017.3 24.4 WSW 24.4 0.0 0.6
15:47 17.4 10.1 62 1017.3 21.3 NE 24.4 0.0 0.6
15:48 17.3 10.0 62 1017.4 17.4 W 24.4 0.0 0.6
15:49 17.2 9.6 61 1017.4 22.8 W 24.4 0.0 0.6
15:50 17.1 9.5 61 1017.4 23.5 W 24.4 0.0 0.6
15:51 16.8 9.2 61 1017.4 19.7 W 24.4 0.0 0.6
15:52 16.7 9.1 61 1017.2 26.6 W 26.6 0.0 0.6
15:53 16.6 9.1 61 1017.5 19.7 W 26.6 0.0 0.6
15:54 16.6 9.1 61 1017.5 18.3 WSW 26.6 0.0 0.6
15:55 16.6 9.3 62 1017.2 17.4 W 26.6 0.0 0.6
15:56 16.8 9.7 63 1017.4 15.9 W 26.6 0.0 0.6
15:57 17.0 9.9 63 1017.4 13.0 W 26.6 0.0 0.6
15:58 17.0 9.9 63 1017.4 13.0 W 26.6 0.0 0.6
15:59 17.0 9.7 62 1017.5 17.4 WNW 26.6 0.0 0.6
16:00 17.0 9.7 62 1017.7 17.4 WNW 26.6 0.0 0.6
16:01 17.0 9.7 62 1017.3 17.4 WNW 26.6 0.0 0.6
16:02 17.0 9.7 62 1017.4 17.4 WNW 26.6 0.0 0.6
16:03 17.0 9.7 62 1017.6 17.4 WNW 26.6 0.0 0.6
16:04 17.0 9.7 62 1017.7 17.4 WNW 20.6 0.0 0.6
16:05 17.0 9.4 61 1017.3 24.4 W 24.4 0.0 0.6
16:06 16.9 9.3 61 1017.4 15.9 W 24.4 0.0 0.6
16:07 16.9 9.6 62 1017.5 13.0 WNW 24.4 0.0 0.6
16:08 16.9 9.8 63 1017.5 17.4 SW 24.4 0.0 0.6
16:09 16.9 9.6 62 1017.7 19.0 W 24.4 0.0 0.6
16:10 16.9 9.6 62 1017.7 19.0 W 24.4 0.0 0.6
16:11 16.9 9.6 62 1017.6 19.0 W 24.4 0.0 0.6
16:12 17.0 9.9 63 1017.5 15.9 W 24.4 0.0 0.6
16:13 17.1 10.0 63 1017.6 15.9 NW 24.4 0.0 0.6
16:14 17.2 10.1 63 1017.4 18.3 NNW 24.4 0.0 0.6
16:15 17.4 10.1 62 1017.5 15.2 W 24.4 0.0 0.6
16:16 17.4 10.1 62 1017.8 22.8 W 22.8 0.0 0.6
16:17 17.4 10.1 62 1017.7 22.8 WSW 22.8 0.0 0.6
16:18 17.4 10.1 62 1017.6 20.6 W 22.8 0.0 0.6
16:19 17.4 9.8 61 1017.5 25.9 NW 25.9 0.0 0.6
16:20 17.4 9.8 61 1017.4 16.8 W 25.9 0.0 0.6
16:21 17.4 9.8 61 1017.5 15.9 NW 25.9 0.0 0.6
16:22 17.4 9.6 60 1017.7 15.2 W 25.9 0.0 0.6
16:23 17.4 9.6 60 1017.7 19.0 SW 25.9 0.0 0.6
16:24 17.4 9.6 60 1017.4 24.4 WNW 25.9 0.0 0.6
16:25 17.3 9.5 60 1017.6 19.7 W 25.9 0.0 0.6
16:26 17.2 9.4 60 1017.5 20.6 WNW 25.9 0.0 0.6
16:27 17.2 9.4 60 1017.6 20.6 WNW 25.9 0.0 0.6
16:28 17.2 9.4 60 1017.8 20.6 WNW 25.9 0.0 0.6
16:29 16.8 9.0 60 1017.8 16.8 W 25.9 0.0 0.6
16:30 16.7 8.9 60 1017.5 15.9 W 24.4 0.0 0.6
16:31 16.6 8.8 60 1017.8 19.7 W 24.4 0.0 0.6
16:32 16.5 8.7 60 1017.8 18.3 W 24.4 0.0 0.6
16:33 16.4 8.6 60 1017.7 14.5 N 24.4 0.0 0.6
16:34 16.3 8.8 61 1017.5 13.6 SW 24.4 0.0 0.6
16:35 16.3 8.8 61 1017.5 15.2 W 20.6 0.0 0.6
16:36 16.2 8.7 61 1017.6 22.8 W 22.8 0.0 0.6
16:37 16.1 8.6 61 1017.7 21.3 W 22.8 0.0 0.6
16:38 16.1 8.6 61 1017.6 21.3 NW 22.8 0.0 0.6
16:39 16.1 8.6 61 1017.5 17.4 W 22.8 0.0 0.6
16:40 16.0 8.5 61 1017.7 19.0 NW 22.8 0.0 0.6
16:41 16.0 8.5 61 1017.7 19.0 NW 22.8 0.0 0.6
16:42 16.1 8.6 61 1017.8 16.8 W 22.8 0.0 0.6
16:43 16.1 8.8 62 1017.6 16.8 SW 22.8 0.0 0.6
16:44 16.1 8.8 62 1017.7 17.4 W 22.8 0.0 0.6
16:45 16.0 8.7 62 1017.6 21.3 WNW 22.8 0.0 0.6
16:46 16.0 8.7 62 1017.9 20.6 W 22.8 0.0 0.6
16:47 16.1 8.8 62 1017.8 16.8 S 21.3 0.0 0.6
16:48 16.1 8.8 62 1017.6 20.6 NW 21.3 0.0 0.6
16:49 16.1 8.8 62 1017.6 18.3 NW 21.3 0.0 0.6
16:50 16.1 8.8 62 1017.8 18.3 W 21.3 0.0 0.6
16:51 16.1 8.8 62 1017.7 15.9 W 21.3 0.0 0.6
16:52 16.2 8.9 62 1017.7 19.7 SW 25.9 0.0 0.6
16:53 16.2 8.9 62 1017.7 17.4 WSW 25.9 0.0 0.6
16:54 16.3 9.0 62 1017.8 17.4 W 25.9 0.0 0.6
16:55 16.3 9.0 62 1017.7 19.0 N 25.9 0.0 0.6
16:56 16.3 9.0 62 1017.8 19.7 SW 25.9 0.0 0.6
16:57 16.3 9.0 62 1017.8 19.7 SW 25.9 0.0 0.6
16:58 16.2 8.9 62 1017.9 18.3 W 25.9 0.0 0.6
16:59 16.1 8.8 62 1017.7 20.6 N 25.9 0.0 0.6
17:00 16.1 8.8 62 1017.7 20.6 S 25.9 0.0 0.6
17:01 16.1 8.8 62 1017.7 20.6 S 25.9 0.0 0.6
17:02 16.1 8.8 62 1017.8 20.6 S 20.6 0.0 0.6
17:03 16.1 8.8 62 1017.8 20.6 S 20.6 0.0 0.6
17:04 16.1 8.8 62 1017.6 20.6 S 20.6 0.0 0.6
17:05 16.1 8.8 62 1017.8 25.1 SW 25.1 0.0 0.6
17:06 16.1 8.8 62 1017.6 22.8 W 25.1 0.0 0.6
17:07 16.1 8.8 62 1017.6 19.0 W 25.1 0.0 0.6
17:08 16.3 9.0 62 1017.4 19.0 WNW 25.1 0.0 0.6
17:09 16.4 9.1 62 1017.6 12.1 W 25.1 0.0 0.6
17:10 16.6 9.3 62 1017.7 14.5 WSW 25.1 0.0 0.6
17:11 16.6 9.3 62 1017.9 15.9 W 25.1 0.0 0.6
17:12 16.7 9.4 62 1017.5 19.0 W 25.1 0.0 0.6
17:13 16.7 9.4 62 1017.7 15.2 W 25.1 0.0 0.6
17:14 16.7 9.1 61 1017.4 21.3 NW 25.1 0.0 0.6
17:15 16.7 8.9 60 1017.7 21.3 NW 22.8 0.0 0.6
17:16 16.7 8.9 60 1017.7 21.3 WSW 21.3 0.0 0.6
17:17 16.7 8.9 60 1017.6 15.9 WNW 21.3 0.0 0.6
17:18 16.6 8.6 59 1017.8 22.8 W 22.8 0.0 0.6
17:19 16.5 8.5 59 1017.7 18.3 NW 22.8 0.0 0.6
17:20 16.4 8.4 59 1017.6 17.4 W 22.8 0.0 0.6
17:21 16.3 8.5 60 1017.6 17.4 N 22.8 0.0 0.6
17:22 16.3 8.8 61 1017.4 17.4 W 22.8 0.0 0.6
17:23 16.3 8.8 61 1017.5 20.6 N 22.8 0.0 0.6
17:24 16.3 8.8 61 1017.7 20.6 N 22.8 0.0 0.6
17:25 16.3 8.8 61 1017.6 18.3 W 22.8 0.0 0.6
17:26 16.2 8.9 62 1017.7 15.9 SW 22.8 0.0 0.6
17:28 16.1 8.8 62 1017.8 16.8 W 22.8 0.0 0.6
17:29 16.1 8.8 62 1017.7 20.6 W 20.6 0.0 0.6
17:30 16.1 8.8 62 1017.7 16.8 SW 20.6 0.0 0.6
17:31 16.2 8.9 62 1017.7 10.7 SW 20.6 0.0 0.6
17:32 16.2 8.9 62 1017.6 15.2 W 20.6 0.0 0.6
17:33 16.2 9.2 63 1017.6 18.3 W 20.6 0.0 0.6
17:34 16.3 9.3 63 1017.6 19.7 N 20.6 0.0 0.6
17:35 16.3 9.0 62 1017.4 12.1 NW 20.6 0.0 0.6
17:36 16.3 9.0 62 1017.5 14.5 SW 20.6 0.0 0.6
17:37 16.4 9.3 63 1017.5 10.7 W 20.6 0.0 0.6
17:38 16.5 9.4 63 1017.6 14.5 NW 20.6 0.0 0.6
17:39 16.5 9.2 62 1017.4 18.3 W 19.7 0.0 0.6
17:40 16.5 9.2 62 1017.5 15.2 W 19.7 0.0 0.6
17:42 16.5 9.2 62 1017.3 18.3 WNW 19.7 0.0 0.6
17:43 16.4 8.9 61 1017.4 18.3 WNW 19.7 0.0 0.6
17:44 16.4 8.9 61 1017.7 13.6 N 19.7 0.0 0.6
17:45 16.4 8.9 61 1017.4 15.2 N 19.7 0.0 0.6
17:46 16.4 9.1 62 1017.4 22.1 SW 22.1 0.0 0.6
17:47 16.4 8.9 61 1017.5 17.4 W 22.1 0.0 0.6
17:48 16.3 9.0 62 1017.5 17.4 W 22.1 0.0 0.6
17:49 16.3 9.0 62 1017.3 19.0 WNW 22.1 0.0 0.6
17:50 16.1 8.8 62 1017.4 13.6 WSW 22.1 0.0 0.6
17:51 16.1 8.8 62 1017.5 15.2 N 22.1 0.0 0.6
17:52 16.0 8.7 62 1017.3 11.4 W 22.1 0.0 0.6
17:53 16.0 8.7 62 1017.4 11.4 W 22.1 0.0 0.6
17:54 15.9 8.9 63 1017.4 15.2 SW 22.1 0.0 0.6
17:56 15.8 8.8 63 1017.5 16.8 W 22.1 0.0 0.6
17:57 15.7 8.7 63 1017.7 14.5 SW 19.0 0.0 0.6
17:58 15.7 8.7 63 1017.6 23.5 W 23.5 0.0 0.6
17:59 15.6 8.6 63 1017.5 18.3 NW 23.5 0.0 0.6
18:00 15.6 8.6 63 1017.8 16.8 SW 23.5 0.0 0.6
18:01 15.6 8.6 63 1017.6 16.8 SW 23.5 0.0 0.6
18:02 15.6 8.6 63 1017.3 16.8 SW 23.5 0.0 0.6
18:03 15.6 8.6 63 1017.5 16.8 SW 23.5 0.0 0.6
18:04 15.6 8.6 63 1017.6 16.8 SW 23.5 0.0 0.6
18:05 15.2 8.7 65 1017.6 22.8 NW 23.5 0.0 0.6
18:06 15.1 8.8 66 1017.7 22.1 W 23.5 0.0 0.6
18:07 15.0 8.9 67 1017.6 18.3 WNW 23.5 0.0 0.6
18:08 15.0 9.1 68 1017.3 18.3 W 22.8 0.0 0.6
18:10 14.9 9.5 70 1017.5 16.8 W 22.8 0.0 0.6
18:11 14.8 9.4 70 1017.4 13.0 NW 22.8 0.0 0.6
18:12 14.8 9.4 70 1017.5 13.6 W 22.8 0.0 0.6
18:13 14.8 9.4 70 1017.4 14.5 NW 22.8 0.0 0.6
18:14 14.7 9.3 70 1017.6 15.2 NW 22.8 0.0 0.6
18:15 14.7 9.3 70 1017.5 15.2 W 22.8 0.0 0.6
18:16 14.7 9.3 70 1017.6 13.6 W 22.1 0.0 0.6
18:17 14.7 9.5 71 1017.6 11.4 W 22.1 0.0 0.6
18:18 14.7 9.5 71 1017.6 13.0 NW 19.0 0.0 0.6
18:19 14.7 9.5 71 1017.5 20.6 NW 20.6 0.0 0.6
18:20 14.7 9.5 71 1017.3 22.8 WNW 22.8 0.0 0.6
18:21 14.7 9.5 71 1017.8 22.1 NW 22.8 0.0 0.6
18:22 14.7 9.5 71 1017.6 12.1 W 22.8 0.0 0.6
18:24 14.8 9.6 71 1017.7 19.7 SW 22.8 0.0 0.6
18:25 14.8 9.6 71 1017.5 18.3 SW 22.8 0.0 0.6
18:26 14.9 9.7 71 1017.6 15.9 W 22.8 0.0 0.6
18:27 15.0 9.8 71 1017.3 19.0 N 22.8 0.0 0.6
18:28 15.1 9.9 71 1017.6 19.7 W 22.8 0.0 0.6
18:29 15.1 9.9 71 1017.6 19.7 W 22.8 0.0 0.6
18:30 15.2 9.8 70 1017.5 20.6 SW 22.8 0.0 0.6
18:31 15.3 9.9 70 1017.4 20.6 W 22.1 0.0 0.6
18:32 15.3 9.7 69 1017.6 13.6 W 20.6 0.0 0.6
18:33 15.3 9.7 69 1017.6 13.6 W 20.6 0.0 0.6
18:34 15.5 9.6 68 1017.5 16.8 WNW 20.6 0.0 0.6
18:35 15.6 9.3 66 1017.8 22.8 WNW 22.8 0.0 0.6
18:36 15.6 9.3 66 1017.6 15.9 N 22.8 0.0 0.6
18:38 15.6 9.1 65 1017.5 16.8 W 22.8 0.0 0.6
18:39 15.6 9.1 65 1017.4 15.2 SW 22.8 0.0 0.6
18:40 15.6 8.8 64 1017.6 22.8 W 22.8 0.0 0.6
18:41 15.6 8.8 64 1017.7 21.3 W 22.8 0.0 0.6
18:42 15.6 8.6 63 1017.7 19.7 W 22.8 0.0 0.6
18:43 15.6 8.6 63 1017.4 19.7 W 22.8 0.0 0.6
18:44 15.5 8.5 63 1017.3 18.3 SW 22.8 0.0 0.6
18:45 15.5 8.5 63 1017.3 15.9 NW 22.8 0.0 0.6
18:46 15.5 8.5 63 1017.3 20.6 WSW 22.8 0.0 0.6
18:47 15.5 8.5 63 1017.7 20.6 W 22.8 0.0 0.6
18:48 15.5 8.5 63 1017.7 20.6 W 22.8 0.0 0.6
18:49 15.5 8.5 63 1017.6 15.2 SW 22.8 0.0 0.6
18:50 15.5 8.7 64 1017.7 18.3 W 22.8 0.0 0.6
18:52 15.5 8.5 63 1017.6 19.0 NW 20.6 0.0 0.6
18:53 15.5 8.5 63 1017.6 19.7 WNW 20.6 0.0 0.6
18:54 15.5 8.5 63 1017.6 19.7 W 20.6 0.0 0.6
18:55 15.4 8.4 63 1017.6 17.4 W 20.6 0.0 0.6
18:56 15.3 8.3 63 1017.5 10.7 NW 20.6 0.0 0.6
18:57 15.2 8.4 64 1017.4 13.0 W 20.6 0.0 0.6
18:58 15.2 8.4 64 1017.6 15.9 W 20.6 0.0 0.6
18:59 15.2 8.4 64 1017.4 15.9 W 19.7 0.0 0.6
19:00 15.1 8.3 64 1017.5 13.0 W 19.7 0.0 0.6
19:01 15.1 8.3 64 1017.4 13.0 W 19.7 0.0 0.6
19:02 15.3 8.5 64 1017.2 19.7 NW 19.7 0.0 0.6
19:03 15.3 8.5 64 1017.4 14.5 W 19.7 0.0 0.6
19:04 15.4 8.6 64 1017.4 19.7 W 19.7 0.0 0.6
19:06 15.4 8.4 63 1017.3 21.3 W 21.3 0.0 0.6
19:07 15.4 8.4 63 1017.5 16.8 W 21.3 0.0 0.6
19:08 15.4 8.4 63 1017.5 17.4 NW 21.3 0.0 0.6
19:09 15.4 8.4 63 1017.5 17.4 NW 21.3 0.0 0.6
19:10 15.4 8.4 63 1017.5 18.3 NW 21.3 0.0 0.6
19:11 15.4 8.4 63 1017.3 18.3 W 21.3 0.0 0.6
19:12 15.4 8.4 63 1017.3 17.4 WNW 21.3 0.0 0.6
19:13 15.4 8.4 63 1017.5 18.3 W 21.3 0.0 0.6
19:14 15.4 8.4 63 1017.4 20.6 SW 21.3 0.0 0.6
19:16 15.4 8.4 63 1017.8 13.0 SW 21.3 0.0 0.6
19:17 15.4 8.4 63 1017.3 19.0 NNW 20.6 0.0 0.6
19:18 15.4 8.2 62 1017.4 22.1 W 22.1 0.0 0.6
19:19 15.4 8.2 62 1017.5 23.5 NW 23.5 0.0 0.6
19:20 15.4 8.2 62 1017.6 22.8 NE 23.5 0.0 0.6
19:21 15.3 7.8 61 1017.4 22.8 W 23.5 0.0 0.6
19:22 15.3 7.8 61 1017.6 22.1 W 23.5 0.0 0.6
19:23 15.3 7.8 61 1017.5 22.1 SW 23.5 0.0 0.6
19:24 15.3 7.8 61 1017.6 13.0 W 23.5 0.0 0.6
19:25 15.3 8.1 62 1017.5 14.5 W 23.5 0.0 0.6
19:26 15.2 7.7 61 1017.4 21.3 W 24.4 0.0 0.6
19:27 15.2 7.7 61 1017.7 18.3 SW 24.4 0.0 0.6
19:28 15.2 7.7 61 1017.6 19.0 W 24.4 0.0 0.6
19:29 15.2 7.7 61 1017.8 16.8 W 24.4 0.0 0.6
19:31 15.2 7.7 61 1017.8 17.4 NW 24.4 0.0 0.6
19:32 15.2 7.7 61 1017.8 18.3 NW 24.4 0.0 0.6
19:33 15.2 7.7 61 1017.6 13.6 W 24.4 0.0 0.6
19:34 15.2 7.7 61 1017.8 9.2 SW 24.4 0.0 0.6
19:35 15.2 8.0 62 1017.8 9.8 NW 24.4 0.0 0.6
19:36 15.3 8.1 62 1017.8 10.7 W 24.4 0.0 0.6
19:37 15.3 8.1 62 1017.6 19.7 WNW 21.3 0.0 0.6
19:38 15.3 8.1 62 1017.7 15.9 W 19.7 0.0 0.6
19:39 15.3 8.1 62 1017.7 15.2 W 19.7 0.0 0.6
19:40 15.2 8.0 62 1017.7 13.0 NW 19.7 0.0 0.6
19:41 15.2 8.0 62 1017.6 22.1 WNW 22.1 0.0 0.6
19:42 15.2 8.0 62 1017.8 21.3 NW 22.1 0.0 0.6
19:43 15.2 8.0 62 1017.7 21.3 NW 22.1 0.0 0.6
19:45 15.2 8.0 62 1017.6 15.2 W 22.1 0.0 0.6
19:46 15.2 8.0 62 1017.9 14.5 N 22.1 0.0 0.6
19:47 15.2 8.0 62 1017.8 15.2 NW 22.1 0.0 0.6
19:48 15.2 8.0 62 1017.8 9.8 NW 22.1 0.0 0.6
19:49 15.2 8.0 62 1018.0 15.9 W 22.1 0.0 0.6
19:50 15.2 8.0 62 1017.8 15.2 N 22.1 0.0 0.6
19:51 15.2 8.0 62 1017.9 15.2 W 22.1 0.0 0.6
19:52 15.2 8.0 62 1017.7 18.3 W 21.3 0.0 0.6
19:53 15.1 7.9 62 1017.9 21.3 SW 21.3 0.0 0.6
19:54 15.1 7.9 62 1017.8 16.8 W 21.3 0.0 0.6
19:55 15.1 7.9 62 1017.8 20.6 W 21.3 0.0 0.6
19:56 15.0 7.8 62 1017.8 15.9 W 21.3 0.0 0.6
19:57 15.0 7.8 62 1017.9 14.5 W 21.3 0.0 0.6
19:59 15.0 7.8 62 1017.9 16.8 NW 21.3 0.0 0.6
20:00 15.0 7.8 62 1017.8 22.8 W 22.8 0.0 0.6
20:01 15.0 7.8 62 1018.0 22.8 W 22.8 0.0 0.6
20:02 15.0 7.8 62 1018.0 22.8 W 22.8 0.0 0.6
20:03 14.8 7.6 62 1018.0 22.8 NW 22.8 0.0 0.6
20:04 14.8 7.6 62 1018.0 16.8 W 22.8 0.0 0.6
20:05 14.8 7.6 62 1018.0 13.6 W 22.8 0.0 0.6
20:06 14.7 7.5 62 1017.9 10.7 W 22.8 0.0 0.6
20:07 14.7 7.5 62 1017.9 15.9 W 22.8 0.0 0.6
20:08 14.7 7.5 62 1017.7 17.4 W 22.8 0.0 0.6
20:09 14.6 7.4 62 1017.7 19.7 W 22.8 0.0 0.6
20:10 14.6 7.4 62 1017.8 18.3 W 22.8 0.0 0.6
20:11 14.6 7.6 63 1017.7 14.5 WNW 22.8 0.0 0.6
20:13 14.6 7.6 63 1017.8 17.4 NW 19.7 0.0 0.6
20:14 14.6 7.6 63 1017.8 17.4 W 19.7 0.0 0.6
20:15 14.6 7.6 63 1017.8 15.9 NW 19.7 0.0 0.6
20:16 14.6 7.6 63 1017.8 13.0 NW 19.7 0.0 0.6
20:17 14.6 7.6 63 1017.8 10.7 SW 19.7 0.0 0.6
20:18 14.6 7.6 63 1018.0 14.5 NW 19.7 0.0 0.6
20:19 14.6 7.6 63 1017.7 14.5 NW 19.7 0.0 0.6
20:20 14.6 7.6 63 1017.9 15.2 NW 18.3 0.0 0.6
20:21 14.5 7.5 63 1017.8 13.0 NNW 17.4 0.0 0.6
20:22 14.4 7.5 63 1018.1 12.1 W 17.4 0.0 0.6
20:23 14.4 7.5 63 1017.9 16.8 W 17.4 0.0 0.6
20:24 14.3 7.4 63 1018.1 16.8 NW 16.8 0.0 0.6
20:25 14.3 7.4 63 1018.1 13.0 W 16.8 0.0 0.6
20:27 14.2 7.5 64 1018.2 13.0 W 16.8 0.0 0.6
20:28 14.1 7.4 64 1018.1 10.7 W 16.8 0.0 0.6
20:29 14.0 7.3 64 1018.3 20.6 SW 20.6 0.0 0.6
20:30 14.0 7.3 64 1017.8 20.6 WNW 20.6 0.0 0.6
20:31 14.0 7.3 64 1017.9 19.0 SW 20.6 0.0 0.6
20:32 13.9 7.4 65 1017.9 16.8 W 20.6 0.0 0.6
20:33 13.8 7.3 65 1018.0 20.6 W 20.6 0.0 0.6
20:34 13.8 7.3 65 1018.0 17.4 W 20.6 0.0 0.6
20:35 13.7 7.2 65 1018.0 13.0 W 20.6 0.0 0.6
20:36 13.7 7.2 65 1018.0 19.7 NW 20.6 0.0 0.6
20:37 13.7 7.2 65 1018.1 13.6 NW 20.6 0.0 0.6
20:38 13.6 7.1 65 1018.0 19.0 WNW 20.6 0.0 0.6
20:39 13.6 7.1 65 1018.1 19.0 SW 20.6 0.0 0.6
20:41 13.5 7.1 65 1017.9 15.9 W 20.6 0.0 0.6
20:42 13.5 7.1 65 1017.9 10.7 NW 20.6 0.0 0.6
20:43 13.5 7.3 66 1018.0 10.7 W 20.6 0.0 0.6
20:44 13.4 7.2 66 1018.0 17.4 NW 20.6 0.0 0.6
20:45 13.4 7.2 66 1018.1 18.3 W 20.6 0.0 0.6
20:46 13.4 7.2 66 1018.2 18.3 NNW 20.6 0.0 0.6
20:47 13.4 7.2 66 1018.1 18.3 W 20.6 0.0 0.6
20:48 13.4 7.2 66 1017.9 15.2 W 20.6 0.0 0.6
20:49 13.3 7.1 66 1017.9 18.3 N 20.6 0.0 0.6
20:50 13.3 7.1 66 1018.0 16.8 WNW 20.6 0.0 0.6
20:51 13.3 7.3 67 1018.0 15.2 W 18.3 0.0 0.6
20:52 13.3 7.3 67 1018.2 9.8 W 18.3 0.0 0.6
20:53 13.3 7.3 67 1018.2 9.8 NW 18.3 0.0 0.6
20:55 13.3 7.3 67 1018.2 17.4 W 18.3 0.0 0.6
20:56 13.3 7.3 67 1018.2 19.0 W 19.0 0.0 0.6
20:57 13.3 7.3 67 1018.0 17.4 NW 19.0 0.0 0.6
20:58 13.2 7.2 67 1018.1 19.7 W 19.7 0.0 0.6
20:59 13.2 7.2 67 1018.4 16.8 WNW 19.7 0.0 0.6
21:00 13.2 7.2 67 1018.2 14.5 W 19.7 0.0 0.6
21:01 13.2 7.2 67 1018.2 14.5 W 19.7 0.0 0.6
21:02 13.2 7.2 67 1018.2 14.5 W 19.7 0.0 0.6
21:03 13.2 7.2 67 1018.2 14.5 W 19.7 0.0 0.6
21:04 13.2 7.2 67 1018.2 14.5 W 19.7 0.0 0.6
21:05 13.1 7.1 67 1018.1 19.7 NW 19.7 0.0 0.6
21:06 13.1 7.1 67 1018.2 11.4 W 19.7 0.0 0.6
21:07 13.1 7.1 67 1018.3 15.9 NW 19.7 0.0 0.6
21:09 13.1 7.1 67 1018.2 16.8 N 19.7 0.0 0.6
21:10 13.0 7.0 67 1018.5 13.0 SW 19.7 0.0 0.6
21:11 13.1 7.1 67 1018.1 14.5 NW 19.7 0.0 0.6
21:12 13.0 7.0 67 1018.2 12.1 W 19.7 0.0 0.6
21:13 13.0 7.0 67 1018.3 15.9 N 19.7 0.0 0.6
21:14 13.0 7.0 67 1018.2 15.9 NW 19.7 0.0 0.6
21:15 13.0 7.0 67 1018.0 14.5 NW 19.7 0.0 0.6
21:16 13.0 7.2 68 1018.2 13.6 SW 16.8 0.0 0.6
21:17 13.0 7.2 68 1018.2 15.9 NW 16.8 0.0 0.6
21:19 13.0 7.2 68 1018.2 15.2 W 16.8 0.0 0.6
21:20 13.0 7.2 68 1018.2 13.0 W 16.8 0.0 0.6
21:21 13.0 7.2 68 1018.1 12.1 W 16.8 0.0 0.6
21:22 13.0 7.4 69 1018.2 12.1 W 16.8 0.0 0.6
21:24 13.0 7.4 69 1018.4 11.4 NW 16.8 0.0 0.6
21:25 13.0 7.4 69 1018.3 14.5 W 16.8 0.0 0.6
21:26 13.0 7.4 69 1018.4 9.8 W 16.8 0.0 0.6
21:27 12.9 7.4 69 1018.4 13.0 NW 16.8 0.0 0.6
21:28 12.9 7.4 69 1018.5 14.5 W 16.8 0.0 0.6
21:29 12.9 7.4 69 1018.4 13.0 W 16.8 0.0 0.6
21:30 12.9 7.4 69 1018.3 13.0 W 14.5 0.0 0.6
21:31 12.8 7.5 70 1018.2 15.2 NW 15.2 0.0 0.6
21:32 12.8 7.5 70 1018.2 13.6 NW 15.2 0.0 0.6
21:33 12.8 7.5 70 1018.5 14.5 W 15.2 0.0 0.6
21:34 12.8 7.5 70 1018.4 15.9 NW 15.9 0.0 0.6
21:35 12.8 7.5 70 1018.4 14.5 SW 15.9 0.0 0.6
21:36 12.7 7.4 70 1018.4 13.6 W 15.9 0.0 0.6
21:38 12.7 7.4 70 1018.4 13.6 NW 15.9 0.0 0.6
21:39 12.7 7.4 70 1018.5 13.6 SW 15.9 0.0 0.6
21:40 12.7 7.4 70 1018.5 13.0 NW 15.9 0.0 0.6
21:41 12.7 7.4 70 1018.3 10.7 W 15.9 0.0 0.6
21:42 12.7 7.4 70 1018.6 10.7 WNW 15.9 0.0 0.6
21:43 12.7 7.4 70 1018.5 9.8 NW 15.9 0.0 0.6
21:44 12.6 7.3 70 1018.8 11.4 N 15.9 0.0 0.6
21:45 12.6 7.3 70 1018.7 9.8 SW 14.5 0.0 0.6
21:46 12.6 7.3 70 1018.6 13.0 W 13.6 0.0 0.6
21:47 12.6 7.3 70 1018.7 15.9 N 15.9 0.0 0.6
21:48 12.6 7.3 70 1018.6 15.9 NW 15.9 0.0 0.6
21:49 12.6 7.3 70 1018.8 13.6 W 15.9 0.0 0.6
21:50 12.6 7.3 70 1018.8 16.8 SW 16.8 0.0 0.6
21:52 12.6 7.3 70 1018.7 11.4 SW 16.8 0.0 0.6
21:53 12.6 7.3 70 1018.5 13.0 W 16.8 0.0 0.6
21:54 12.6 7.5 71 1018.8 16.8 W 16.8 0.0 0.6
21:55 12.6 7.5 71 1018.8 13.0 N 16.8 0.0 0.6
21:56 12.6 7.5 71 1018.7 13.0 NW 16.8 0.0 0.6
21:57 12.6 7.5 71 1018.8 15.2 W 16.8 0.0 0.6
21:58 12.5 7.4 71 1018.7 12.1 SW 16.8 0.0 0.6
21:59 12.5 7.4 71 1018.6 12.1 SW 16.8 0.0 0.6
22:00 12.5 7.4 71 1018.8 12.1 SW 16.8 0.0 0.6
22:01 12.5 7.4 71 1018.7 12.1 SW 16.8 0.0 0.6
22:02 12.5 7.4 71 1018.8 12.1 SW 16.8 0.0 0.6
22:03 12.5 7.4 71 1018.8 12.1 SW 16.8 0.0 0.6
22:04 12.5 7.4 71 1018.7 12.1 SW 15.2 0.0 0.6
22:06 12.5 7.4 71 1018.7 12.1 SW 15.2 0.0 0.6
22:07 12.5 7.4 71 1018.9 10.7 W 15.2 0.0 0.6
22:08 12.5 7.4 71 1018.9 9.8 NW 12.1 0.0 0.6
22:09 12.4 7.9 74 1019.1 9.8 W 12.1 0.0 0.6
22:10 12.4 7.9 74 1018.8 14.5 W 14.5 0.0 0.6
22:11 12.4 7.9 74 1018.9 12.1 W 14.5 0.0 0.6
22:12 12.4 7.9 74 1019.0 11.4 W 14.5 0.0 0.6
22:13 12.4 7.9 74 1018.9 13.0 NW 14.5 0.0 0.6
22:14 12.4 7.9 74 1018.8 13.6 W 14.5 0.0 0.6
22:15 12.4 7.9 74 1019.0 12.1 W 14.5 0.0 0.6
22:16 12.4 7.9 74 1019.1 15.9 W 15.9 0.0 0.6
22:17 12.4 7.9 74 1018.9 15.9 W 15.9 0.0 0.6
22:18 12.4 7.9 74 1019.0 13.6 WNW 15.9 0.0 0.6
22:20 12.4 7.9 74 1019.1 13.0 W 15.9 0.0 0.6
22:21 12.4 7.9 74 1018.9 12.1 W 15.9 0.0 0.6
22:22 12.4 7.9 74 1019.1 12.1 W 15.9 0.0 0.6
22:23 12.4 7.9 74 1019.0 12.1 W 15.9 0.0 0.6
22:24 12.4 7.9 74 1019.0 10.7 W 15.9 0.0 0.6
22:25 12.4 7.9 74 1019.0 12.1 SW 15.9 0.0 0.6
22:26 12.4 7.9 74 1019.0 10.7 WNW 15.9 0.0 0.6
22:27 12.4 7.9 74 1019.0 18.3 N 18.3 0.0 0.6
22:28 12.4 7.9 74 1019.0 18.3 W 18.3 0.0 0.6
22:29 12.4 7.9 74 1019.2 10.7 W 18.3 0.0 0.6
22:30 12.4 7.9 74 1019.0 10.7 W 18.3 0.0 0.6
22:31 12.4 7.9 74 1019.1 12.1 W 18.3 0.0 0.6
22:32 12.4 7.9 74 1019.0 8.3 NW 18.3 0.0 0.6
22:34 12.4 7.9 74 1019.0 9.8 N 18.3 0.0 0.6
22:35 12.4 7.9 74 1019.1 12.1 NW 18.3 0.0 0.6
22:36 12.4 7.9 74 1019.0 7.6 WNW 18.3 0.0 0.6
22:37 12.4 7.9 74 1019.1 13.0 SW 18.3 0.0 0.6
22:38 12.3 7.8 74 1018.9 13.0 SW 18.3 0.0 0.6
22:39 12.3 7.8 74 1019.2 10.7 WSW 15.9 0.0 0.6
22:40 12.3 7.8 74 1019.0 9.8 NW 15.9 0.0 0.6
22:41 12.3 7.8 74 1018.9 13.6 NW 15.9 0.0 0.6
22:42 12.3 7.8 74 1019.1 12.1 W 15.9 0.0 0.6
22:43 12.3 7.8 74 1019.1 14.5 NW 15.9 0.0 0.6
22:44 12.3 7.8 74 1019.0 12.1 W 15.9 0.0 0.6
22:45 12.3 8.0 75 1019.0 11.4 WSW 15.9 0.0 0.6
22:46 12.3 8.0 75 1019.1 13.6 W 14.5 0.0 0.6
22:48 12.3 8.0 75 1019.0 11.4 NW 14.5 0.0 0.6
22:49 12.2 7.9 75 1019.0 10.7 W 16.8 0.0 0.6
22:50 12.2 7.9 75 1019.1 8.3 NW 16.8 0.0 0.6
22:51 12.2 7.9 75 1019.1 8.3 SW 16.8 0.0 0.6
22:52 12.2 7.9 75 1019.0 11.4 W 16.8 0.0 0.6
22:53 12.2 7.9 75 1019.2 9.8 W 16.8 0.0 0.6
22:54 12.2 7.9 75 1019.1 9.8 SE 16.8 0.0 0.6
22:55 12.2 7.9 75 1019.1 9.2 W 16.8 0.0 0.6
22:56 12.2 7.9 75 1019.0 9.8 W 16.8 0.0 0.6
22:57 12.1 7.8 75 1018.9 9.8 W 16.8 0.0 0.6
22:58 12.1 7.8 75 1019.0 10.7 W 16.8 0.0 0.6
22:59 12.1 7.8 75 1018.9 9.8 W 11.4 0.0 0.6
23:00 12.1 7.8 75 1019.0 9.8 W 11.4 0.0 0.6
23:02 12.1 7.8 75 1019.1 9.8 W 10.7 0.0 0.6
23:03 12.1 7.8 75 1019.0 9.8 W 10.7 0.0 0.6
23:04 12.1 7.8 75 1019.0 9.8 W 10.7 0.0 0.6
23:05 12.1 7.8 75 1019.2 9.8 W 10.7 0.0 0.6
23:06 12.1 7.8 75 1019.1 9.8 W 10.7 0.0 0.6
23:07 12.0 7.9 76 1019.0 12.1 W 12.1 0.0 0.6
23:08 12.0 7.9 76 1019.0 11.4 W 12.1 0.0 0.6
23:09 12.0 7.9 76 1019.3 9.8 W 12.1 0.0 0.6
23:10 12.0 7.9 76 1019.2 8.3 SW 12.1 0.0 0.6
23:11 12.0 7.9 76 1019.0 8.3 W 12.1 0.0 0.6
23:12 12.0 7.9 76 1019.1 6.9 SW 12.1 0.0 0.6
23:13 12.0 7.9 76 1019.1 9.2 W 12.1 0.0 0.6
23:14 12.0 7.9 76 1019.5 10.7 W 12.1 0.0 0.6
23:16 12.0 7.9 76 1019.2 15.2 NW 15.2 0.0 0.6
23:17 12.0 7.9 76 1019.1 9.2 SW 15.2 0.0 0.6
23:18 12.0 7.9 76 1019.4 9.2 SW 15.2 0.0 0.6
23:20 12.0 7.9 76 1019.2 9.8 W 15.2 0.0 0.6
23:21 12.0 8.1 77 1019.4 13.6 NNW 15.2 0.0 0.6
23:22 12.0 8.1 77 1019.0 13.6 W 15.2 0.0 0.6
23:23 12.0 8.1 77 1019.4 9.2 W 15.2 0.0 0.6
23:24 12.0 8.1 77 1019.4 13.6 W 15.2 0.0 0.6
23:25 12.0 8.1 77 1019.3 8.3 NW 15.2 0.0 0.6
23:26 12.0 8.1 77 1019.3 9.2 W 13.6 0.0 0.6
23:27 12.0 8.1 77 1019.3 8.3 NW 13.6 0.0 0.6
23:28 12.0 8.1 77 1019.5 8.3 NW 13.6 0.0 0.6
23:29 12.0 8.1 77 1019.4 8.3 W 13.6 0.0 0.6
23:30 12.0 8.1 77 1019.4 9.8 SW 13.6 0.0 0.6
23:31 12.0 8.1 77 1019.3 9.2 NW 13.6 0.0 0.6
23:32 12.0 8.1 77 1019.5 10.7 W 13.6 0.0 0.6
23:34 12.0 8.1 77 1019.4 13.6 WSW 13.6 0.0 0.6
23:35 12.0 8.1 77 1019.5 7.6 W 13.6 0.0 0.6
23:36 12.0 8.3 78 1019.4 8.3 SW 13.6 0.0 0.6
23:37 12.1 8.4 78 1019.5 8.3 W 13.6 0.0 0.6
23:38 12.1 8.4 78 1019.4 11.4 W 13.6 0.0 0.6
23:39 12.1 8.4 78 1019.4 10.7 W 13.6 0.0 0.6
23:40 12.1 8.4 78 1019.3 6.9 SW 13.6 0.0 0.6
23:41 12.1 8.4 78 1019.6 9.2 W 13.6 0.0 0.6
23:42 12.1 8.4 78 1019.7 10.7 NW 13.6 0.0 0.6
23:43 12.1 8.4 78 1019.5 10.7 NW 13.6 0.0 0.6
23:44 12.2 8.5 78 1019.5 12.1 W 12.1 0.0 0.6
23:45 12.2 8.5 78 1019.7 9.8 W 12.1 0.0 0.6
23:46 12.2 8.5 78 1019.4 11.4 W 12.1 0.0 0.6
23:48 12.2 8.5 78 1019.5 11.4 NW 12.1 0.0 0.6
23:49 12.2 8.5 78 1019.5 11.4 NW 12.1 0.0 0.6
23:50 12.2 8.5 78 1019.6 6.9 NW 12.1 0.0 0.6
23:51 12.2 8.5 78 1019.5 11.4 SW 12.1 0.0 0.6
23:52 12.2 8.5 78 1019.7 10.7 W 12.1 0.0 0.6
23:53 12.2 8.5 78 1019.5 7.6 NW 12.1 0.0 0.6
23:54 12.2 8.5 78 1019.7 6.9 W 12.1 0.0 0.6
23:55 12.2 8.5 78 1019.8 6.0 NW 11.4 0.0 0.6
23:56 12.2 8.5 78 1019.6 9.2 NW 11.4 0.0 0.6
23:57 12.2 8.5 78 1019.7 9.2 W 11.4 0.0 0.6
23:58 12.2 8.5 78 1019.8 9.8 SW 11.4 0.0 0.6
23:59 12.1 8.4 78 1019.8 7.6 W 11.4 0.0 0.6

 

 

UK - WEATHER STATION TOPSITES - UK World Weather Websites

Copyright © Carnkie Weather 2009 - 2020.